GEFSSGP_500_meanwind_126.txt.gz
Wind_Speed
28 27 25 24 23 22 20 19 20 22 23 24 25 25 26 26 26 27 25 24 24 24 23 22 21 20 20 19 18 17 16 15 14 13 12 12 12 11 11 10 10 11 10 11 11 11 12 12 12
31 30 28 27 25 22 19 20 21 22 23 23 24 25 25 26 26 26 25 25 25 25 24 23 22 21 20 19 18 18 17 16 15 14 14 13 12 12 11 11 11 11 11 11 12 12 13 13 13
34 33 31 29 26 22 21 21 22 22 22 23 23 24 25 25 25 25 25 24 25 25 25 24 23 22 21 20 19 18 17 16 16 15 14 14 13 12 12 11 11 12 12 12 13 13 13 13 14
37 36 35 32 27 24 23 24 24 23 22 22 22 23 23 23 24 25 25 25 25 25 25 24 24 23 22 21 20 19 18 17 16 15 14 14 13 13 12 12 12 13 13 13 13 13 14 14 15
40 39 38 35 30 26 26 26 26 24 23 23 23 22 23 23 24 25 25 25 26 26 26 25 24 23 23 22 21 20 18 18 17 16 15 14 14 13 13 13 13 13 13 13 13 14 15 16 17
42 42 41 37 32 30 29 29 28 27 25 24 24 23 23 23 24 24 25 25 26 26 26 26 25 24 24 23 22 20 19 18 17 17 16 15 15 14 14 14 13 13 14 14 15 16 16 17 18
45 45 43 39 36 33 31 31 30 29 28 27 26 25 24 24 23 24 24 25 26 26 27 27 26 25 25 23 22 21 20 19 18 17 17 16 16 15 15 14 14 14 15 15 16 17 18 19 19
48 48 46 42 38 35 34 34 32 32 30 30 29 27 25 25 24 24 24 25 25 26 26 26 26 26 25 24 23 22 21 20 19 18 17 17 16 16 16 15 15 16 16 17 17 18 19 20 21
51 51 48 43 40 38 37 37 36 34 33 32 31 29 27 27 26 25 25 25 25 26 26 26 26 26 25 24 23 22 22 21 20 19 19 18 17 17 17 17 17 17 18 18 19 19 20 21 23
54 54 48 44 42 41 41 41 39 38 36 34 32 31 30 29 28 26 25 26 26 26 26 26 27 27 26 25 24 23 22 22 20 20 19 19 19 18 18 19 19 19 19 19 20 21 22 23 24
56 54 49 46 45 45 44 44 43 41 39 36 34 33 32 32 30 28 27 27 27 27 27 27 27 27 26 25 24 23 23 22 21 21 20 20 20 20 20 20 19 20 20 21 22 23 24 25 26
57 54 51 49 48 47 47 47 46 45 42 40 38 37 35 34 32 30 29 29 29 28 28 28 27 27 26 25 24 24 23 23 23 22 21 21 21 21 21 20 20 21 22 22 24 25 26 27 28
59 56 54 52 51 50 50 50 49 47 45 43 41 39 37 35 34 33 32 31 31 30 29 29 29 28 27 26 25 25 24 24 23 23 23 22 22 22 21 21 22 23 23 25 26 27 28 29 30
59 58 56 55 54 53 53 52 52 48 47 46 44 42 40 38 36 35 33 32 32 31 30 30 30 29 28 27 27 26 25 25 25 25 24 23 23 23 23 24 24 25 25 27 28 29 30 31 32
60 60 59 57 56 54 55 56 53 49 49 48 46 45 43 41 39 37 35 34 33 33 32 31 31 30 30 29 28 28 27 27 26 26 25 24 24 25 25 25 26 27 28 29 30 31 32 33 33
60 62 62 58 57 56 58 58 53 51 51 50 48 47 45 43 41 39 38 36 35 35 34 33 33 32 31 31 30 29 29 28 28 27 27 26 27 27 27 27 28 29 30 31 32 33 33 34 35
62 63 62 59 58 58 59 58 54 54 54 52 50 49 47 46 44 42 40 39 37 36 36 35 34 34 33 32 32 31 30 29 29 29 29 29 29 29 29 29 30 31 32 33 34 34 35 35 36
62 62 61 60 58 59 60 59 57 56 56 55 53 51 50 48 46 44 43 41 40 39 37 36 36 35 35 34 33 32 31 31 31 31 31 31 30 30 30 31 32 33 34 34 35 35 36 36 37
60 60 60 58 58 60 60 61 59 59 58 57 55 54 52 50 48 47 45 44 43 41 39 38 37 37 36 35 34 33 33 33 33 33 32 32 32 32 33 34 34 35 35 35 36 36 36 37 37
59 59 58 57 57 59 61 62 62 62 60 59 57 55 54 53 51 50 48 46 44 42 41 39 38 38 37 36 35 35 35 35 34 34 34 34 34 35 35 36 36 36 36 36 37 37 37 38 37
59 58 58 57 56 58 61 64 63 63 62 61 60 57 56 54 53 52 50 48 46 44 42 41 40 39 38 37 37 37 36 35 35 35 36 36 37 37 37 37 37 37 37 37 37 37 38 37 37
57 55 55 56 57 58 59 63 64 63 63 62 61 59 57 55 54 53 52 51 49 46 45 43 41 40 39 39 38 38 37 36 36 37 38 38 38 38 38 38 38 37 37 37 37 37 37 37 37
54 53 54 56 57 57 58 62 63 63 63 61 60 59 57 56 54 53 52 51 50 48 47 45 43 42 41 41 40 39 38 38 38 38 39 39 39 39 38 38 38 37 37 38 37 37 37 37 37
53 53 54 55 56 59 57 60 63 62 60 59 58 58 57 55 54 54 53 52 51 50 48 47 45 44 43 42 41 40 39 39 39 39 39 39 39 39 38 38 38 38 37 37 37 37 37 37 37
52 53 53 54 56 59 56 60 63 58 56 56 56 56 56 55 55 54 53 52 52 51 49 48 47 45 44 43 42 41 40 40 40 40 40 40 39 39 39 38 38 37 37 37 37 37 37 37 37
52 54 55 54 54 55 57 60 59 55 53 54 55 55 55 55 55 54 53 52 51 50 49 48 47 46 44 43 42 42 41 41 41 40 40 40 39 39 39 38 37 37 37 37 37 36 37 37 37
51 54 54 52 49 48 53 54 54 54 51 51 52 53 54 54 54 53 52 51 51 50 49 48 46 46 44 43 43 42 42 41 41 40 40 40 39 39 38 37 37 37 37 37 37 37 37 37 36
47 49 52 54 52 49 47 47 51 51 48 48 49 50 51 53 53 53 52 51 50 50 49 48 47 46 45 44 43 42 42 41 40 40 40 39 39 38 37 37 37 36 36 36 37 37 37 36 36
44 47 50 51 52 50 47 45 44 46 46 46 46 47 49 51 52 52 50 49 49 48 48 47 47 46 45 44 43 42 42 41 40 39 39 38 38 37 37 36 36 36 36 36 36 36 36 36 36
42 45 48 49 50 48 46 44 42 41 43 44 44 45 46 48 50 51 50 48 48 47 47 46 46 45 43 42 42 42 41 40 40 39 38 37 37 36 36 36 35 35 35 36 36 36 36 36 36

GEFSSGP_500_meanwind_132.txt.gz
Wind_Speed
36 36 35 35 34 32 28 25 26 26 28 28 28 29 30 32 33 34 31 28 26 26 26 26 25 25 24 22 21 21 20 18 17 16 15 14 14 13 12 12 11 11 11 11 11 11 11 12 12
39 39 38 38 37 33 28 27 28 28 29 29 28 29 29 32 33 33 31 28 27 28 27 27 26 25 25 23 22 21 20 19 18 17 16 15 14 14 13 12 12 12 12 11 11 11 12 13 13
42 42 42 41 38 34 30 30 30 31 31 29 29 29 30 32 34 33 31 29 29 29 29 28 27 26 25 24 23 22 21 20 19 18 17 16 15 14 13 13 13 12 12 11 11 12 13 12 12
45 45 45 44 40 35 32 31 33 32 32 30 30 31 31 32 32 30 30 30 29 30 30 29 29 27 26 25 24 23 22 21 20 19 18 17 16 15 14 14 13 13 12 12 12 13 13 13 13
49 48 48 46 41 37 35 33 34 34 33 31 31 32 32 32 31 30 31 31 31 30 30 30 30 29 27 26 25 24 23 22 21 19 18 18 17 16 15 14 14 13 13 13 13 13 13 13 14
51 52 51 48 43 39 37 36 36 36 34 33 32 32 32 32 31 32 32 32 31 31 30 30 30 30 29 27 26 25 24 22 21 20 19 19 18 16 16 15 15 14 14 14 14 14 14 15 16
53 54 53 50 46 42 39 38 38 38 36 35 34 34 33 32 31 32 32 32 32 31 30 30 30 30 29 28 27 26 25 24 22 21 20 19 18 17 17 16 16 15 15 15 15 15 15 16 17
54 56 56 52 49 44 41 41 41 40 38 37 37 36 34 32 32 32 32 32 31 30 30 30 30 30 30 29 28 27 26 24 23 22 21 20 19 18 18 17 16 16 16 15 16 16 17 18 19
56 59 57 52 49 46 44 44 43 42 41 40 39 38 37 34 33 33 32 32 31 30 30 30 30 30 31 30 29 28 26 25 24 23 22 21 20 19 18 18 17 17 16 16 17 17 18 19 20
59 61 55 51 51 49 48 47 46 45 44 42 41 40 38 35 34 33 33 32 32 31 30 30 30 30 31 31 30 29 27 26 25 24 22 21 20 19 19 18 18 17 17 18 18 18 19 20 21
60 59 54 53 53 52 51 50 49 48 47 44 43 42 40 38 36 35 35 34 33 32 31 31 30 31 30 30 30 30 29 27 26 24 23 22 21 20 20 19 18 18 18 19 19 20 21 22 23
61 59 57 55 54 55 54 53 53 51 48 46 45 45 44 41 39 38 36 35 34 33 33 32 31 30 30 31 30 30 29 28 26 25 24 23 22 21 20 20 19 19 20 20 21 21 22 24 25
61 59 58 58 57 57 57 56 56 54 51 49 48 48 47 44 42 40 39 38 37 35 34 32 32 31 31 31 31 30 29 28 27 26 24 24 23 22 22 21 21 21 21 22 22 23 24 25 26
59 58 59 59 59 59 59 59 59 56 53 52 51 50 48 45 43 42 42 40 38 36 35 34 33 32 32 32 31 30 30 29 27 26 25 24 24 23 22 22 22 22 23 24 24 25 26 27 28
57 59 60 60 60 59 60 62 60 57 56 55 53 52 50 48 46 44 43 42 40 38 37 36 34 34 33 33 32 31 30 29 28 27 26 25 24 24 23 23 23 24 25 25 26 26 27 28 29
56 58 60 59 59 59 62 63 59 58 58 57 55 54 52 50 48 46 45 44 42 41 39 37 36 35 34 34 33 32 31 30 29 28 27 26 25 25 25 24 25 25 26 27 27 27 28 29 31
56 59 59 57 58 59 62 63 59 59 60 59 57 56 55 52 50 48 47 45 44 43 41 39 37 36 36 35 34 33 32 31 30 29 28 27 26 26 26 26 26 27 28 28 28 29 30 31 32
54 56 58 57 56 59 62 62 60 60 60 60 59 57 56 54 52 50 49 47 46 44 43 41 39 38 37 36 35 34 33 32 31 30 29 29 28 28 28 28 28 28 29 29 30 30 31 33 34
52 53 55 56 55 57 60 62 61 61 61 61 61 59 58 56 54 52 51 50 48 47 45 43 41 39 38 36 35 34 33 33 32 31 31 30 29 29 29 29 29 29 30 30 31 32 33 34 35
51 53 53 53 54 56 58 61 61 62 62 61 61 60 59 57 56 54 53 52 51 49 47 45 42 41 39 37 36 35 35 34 33 32 32 31 31 31 31 30 30 31 31 32 32 33 34 34 35
50 52 51 50 50 53 56 60 61 62 62 62 61 60 59 58 57 55 54 53 52 51 49 46 44 42 41 39 38 37 36 35 34 34 34 33 33 32 32 32 32 32 32 33 33 34 34 34 35
48 49 48 48 50 52 54 58 60 60 62 62 61 60 60 59 58 57 55 54 53 51 50 48 46 44 43 41 40 39 38 36 36 36 35 35 34 33 33 34 34 33 33 34 34 34 35 35 35
44 45 47 47 48 51 53 58 59 57 60 61 60 59 59 59 59 58 57 55 53 52 52 50 49 47 45 43 41 40 39 38 38 37 36 36 35 35 35 35 35 35 35 35 35 35 35 35 35
42 44 46 47 48 52 52 55 59 56 56 57 58 58 58 58 58 59 58 57 55 54 53 52 51 49 47 45 43 41 39 39 39 38 37 37 37 36 36 37 36 36 35 35 35 35 35 35 36
39 42 43 46 50 52 49 54 58 53 52 53 56 56 57 58 59 59 60 58 57 55 54 53 52 51 49 46 44 42 40 40 39 39 39 38 38 38 37 38 37 36 36 36 36 35 35 36 36
37 40 42 44 46 49 50 54 53 49 49 51 52 54 55 57 58 59 59 59 58 57 55 54 53 52 50 48 45 43 42 41 40 39 39 39 38 38 38 38 37 37 36 36 36 36 36 36 37
36 38 39 41 42 42 47 49 48 47 49 49 49 51 53 54 56 57 58 59 58 57 56 54 53 52 51 49 47 45 43 42 41 40 40 39 39 38 38 38 37 36 36 36 36 36 36 37 37
35 35 38 43 42 42 43 44 45 44 47 48 47 49 51 52 54 55 56 57 58 57 56 55 53 53 51 50 48 46 45 44 43 42 41 40 39 39 39 38 37 36 36 36 36 36 36 37 37
33 34 36 39 41 41 39 38 37 40 41 44 44 46 48 49 51 53 54 55 55 55 56 55 54 53 52 50 49 48 47 45 44 43 42 41 41 40 39 38 37 37 36 36 36 36 36 36 36
29 32 34 37 40 41 39 33 32 37 39 40 42 44 46 47 49 51 53 54 55 55 55 54 54 53 52 50 49 48 47 46 45 44 42 42 41 39 38 38 38 38 37 36 36 36 36 36 36

GEFSSGP_500_meanwind_138.txt.gz
Wind_Speed
42 42 42 42 42 41 37 32 30 31 31 31 32 33 33 34 34 34 32 31 30 28 27 27 27 26 25 25 24 23 22 20 19 18 17 16 15 14 14 13 12 12 12 11 11 11 10 10 10
44 44 45 45 46 43 38 33 32 32 33 34 35 35 34 34 34 33 32 31 29 29 29 28 28 27 27 26 25 24 23 22 21 20 18 17 16 16 15 14 13 13 13 12 12 11 11 11 11
47 47 48 49 48 44 38 35 34 35 35 36 36 36 35 34 33 33 32 31 30 30 30 29 29 28 28 27 26 25 24 23 22 21 20 18 17 16 15 15 14 14 13 13 12 12 11 11 11
50 51 52 52 49 43 40 38 38 38 38 38 38 38 37 35 34 33 32 32 31 31 30 30 30 30 29 28 27 26 25 24 23 22 21 19 18 17 17 16 15 15 14 14 13 12 12 12 12
52 54 55 54 50 44 41 41 41 40 40 39 39 38 38 36 35 34 33 33 32 32 32 31 31 31 30 30 29 28 26 25 25 23 22 21 19 18 18 17 16 16 15 15 14 13 13 12 12
55 56 57 55 50 46 44 43 44 43 42 41 41 40 39 37 36 35 34 34 34 33 33 32 32 32 32 31 30 29 28 27 26 24 23 22 20 19 19 18 17 17 16 15 14 14 13 13 13
57 58 59 55 52 49 46 45 45 45 44 43 43 42 41 39 38 37 36 35 35 34 34 33 33 32 32 32 31 31 29 28 27 25 24 23 21 20 19 19 18 17 17 16 15 15 14 14 14
58 60 60 58 54 49 46 47 47 47 47 45 45 44 42 40 39 38 37 37 36 36 35 35 34 33 32 32 32 32 31 29 28 26 25 24 22 21 21 20 19 18 18 17 16 16 15 15 15
59 63 62 57 54 50 48 49 48 49 49 48 47 46 43 42 41 40 38 37 37 36 36 35 35 34 33 33 33 32 32 31 29 27 26 25 24 23 22 21 20 19 19 18 17 16 16 16 16
61 64 61 55 54 52 51 51 51 51 52 51 49 48 46 45 43 41 39 38 37 37 36 35 35 35 34 34 33 33 32 32 31 29 28 26 25 24 23 22 21 20 19 18 18 17 17 17 17
62 63 59 56 55 55 54 54 53 54 54 52 50 49 48 47 45 43 41 39 38 38 37 36 36 35 35 34 34 34 33 32 32 30 29 28 26 25 24 22 22 21 20 19 19 18 18 18 18
60 60 59 57 56 56 56 56 55 56 54 52 53 52 50 49 47 44 42 41 39 38 37 37 36 35 35 35 34 34 34 33 32 32 30 28 27 26 24 23 23 22 21 20 19 19 19 19 19
58 58 57 57 57 57 58 59 57 56 55 54 54 53 52 50 49 46 44 43 41 40 38 37 36 35 35 35 35 34 34 33 33 32 31 29 28 27 25 24 24 22 21 21 20 20 20 20 20
55 56 57 57 57 57 59 59 60 57 56 57 56 55 54 53 51 49 47 45 43 41 39 38 37 36 35 35 34 34 34 33 33 33 32 30 29 28 26 26 25 23 22 21 21 21 21 21 22
52 55 56 57 56 56 57 60 59 55 57 58 58 57 56 55 53 51 49 46 44 42 41 40 38 37 36 35 34 34 34 34 33 33 32 31 30 28 27 27 26 24 23 23 22 22 22 23 23
50 53 55 54 54 54 58 60 55 56 58 59 59 59 58 56 55 53 50 48 46 45 43 42 40 39 37 36 35 34 34 34 34 33 32 31 30 29 28 28 27 25 24 24 23 23 24 24 25
47 50 51 51 53 54 58 58 54 56 59 60 60 60 59 58 57 55 53 50 48 47 45 44 42 40 39 37 36 35 35 35 34 34 33 32 31 30 29 28 27 26 25 25 25 25 25 26 26
40 43 47 49 50 53 57 57 55 56 59 61 61 61 61 60 58 56 54 52 50 48 47 46 44 42 41 39 38 36 36 35 35 34 33 32 32 30 30 29 28 27 26 26 26 26 27 27 27
38 40 43 44 47 51 55 56 56 57 59 61 62 63 63 60 58 57 56 54 53 51 49 47 46 44 42 41 39 37 36 36 35 34 34 33 32 31 30 29 28 27 27 27 27 27 28 28 28
38 40 40 41 44 49 54 56 56 57 58 60 61 63 63 62 60 59 57 56 55 53 50 49 47 45 43 41 39 38 38 37 36 35 34 33 32 31 31 30 29 28 28 28 28 28 28 29 29
34 37 38 39 41 46 51 55 55 56 58 59 60 62 64 63 61 59 58 56 55 54 52 50 48 46 44 42 41 41 40 38 37 35 34 34 33 32 31 30 30 30 29 29 29 29 30 30 31
33 33 35 37 39 43 47 53 54 54 56 59 60 61 63 62 61 60 59 57 56 55 53 51 49 47 45 44 43 41 39 37 36 36 35 35 34 33 32 31 31 31 31 31 31 31 31 31 31
31 32 33 35 37 41 44 49 52 53 54 57 58 59 60 61 61 60 60 58 56 55 54 52 50 49 47 45 43 41 40 38 37 37 36 35 35 34 33 33 33 32 32 32 32 31 32 32 32
29 30 32 34 36 40 40 45 48 50 50 52 55 57 58 59 60 59 59 59 57 56 56 53 52 50 48 46 44 42 40 39 38 37 37 36 35 35 34 34 34 33 33 33 32 32 32 33 33
28 29 29 32 36 38 38 42 43 43 45 48 52 55 56 57 58 59 59 59 58 57 56 55 53 51 49 47 46 43 41 40 39 37 37 36 35 34 34 34 34 34 34 34 33 33 33 33 34
24 27 29 31 33 34 36 40 38 39 42 46 49 53 56 57 58 59 59 58 58 57 57 56 53 51 49 48 46 45 43 41 39 38 38 37 35 35 35 35 35 35 34 34 33 33 33 34 35
21 24 25 27 28 30 33 36 36 37 40 44 47 50 54 56 57 58 59 58 58 57 56 55 54 52 50 48 46 46 44 42 40 39 38 37 36 36 36 36 35 35 34 34 34 34 34 35 35
21 22 24 25 26 27 28 31 32 34 35 41 46 48 50 53 56 57 58 58 58 57 56 55 54 53 51 49 46 45 44 43 41 40 39 37 36 36 36 36 36 36 35 35 35 35 36 36 36
21 22 24 26 27 27 28 29 29 31 34 37 42 46 47 49 52 55 57 58 57 57 57 56 55 53 52 50 48 46 44 43 42 41 39 38 36 36 35 35 35 36 36 36 36 36 36 36 36
21 23 25 27 29 30 29 28 28 30 33 36 39 44 46 47 49 51 53 55 56 55 55 55 54 54 52 51 50 48 46 45 43 41 40 39 38 37 37 36 36 36 36 36 36 36 36 36 36

GEFSSGP_500_meanwind_144.txt.gz
Wind_Speed
39 40 41 42 43 44 41 36 33 32 33 34 36 37 37 37 36 35 34 32 33 33 32 31 31 30 29 28 27 26 24 23 22 20 19 18 17 15 14 13 12 11 10 9 9 9 9 9 10
43 44 45 46 47 45 40 36 35 34 37 37 38 39 38 39 38 36 35 33 34 34 34 33 32 31 31 30 29 27 26 24 23 22 20 19 18 17 16 14 13 12 11 10 10 10 10 11 11
46 48 49 50 49 46 41 38 37 39 40 40 41 41 40 39 39 37 36 35 34 35 35 35 34 33 32 31 30 29 27 26 24 23 22 21 20 18 17 16 14 13 12 12 11 11 11 11 11
49 51 53 54 51 45 43 41 41 42 43 43 43 43 42 40 40 39 38 37 36 36 36 36 35 34 33 32 31 30 29 27 26 25 23 22 21 20 18 17 16 15 14 13 12 12 12 12 12
52 54 56 56 52 47 45 44 44 45 45 45 46 45 44 42 42 41 40 39 37 37 36 37 36 35 35 33 32 31 30 29 28 26 25 24 22 21 20 19 18 16 15 14 13 13 13 13 13
56 57 59 58 53 50 48 47 47 48 47 47 48 48 46 44 43 42 41 40 39 38 37 38 38 37 36 35 33 32 31 30 29 28 26 25 24 23 21 20 19 18 16 15 15 14 14 14 14
57 60 61 59 56 53 50 49 50 51 50 49 50 51 48 46 45 44 43 42 41 40 39 39 39 38 37 36 34 33 33 31 30 29 27 26 25 24 23 21 20 19 18 17 16 15 15 15 15
58 61 62 60 58 55 52 52 52 53 53 52 53 53 49 48 47 47 46 45 43 42 41 40 39 38 38 37 36 34 33 32 31 30 28 28 27 26 24 23 21 20 19 18 17 17 16 16 15
59 62 63 60 58 56 54 54 55 55 56 55 55 54 52 51 49 49 48 46 45 43 42 41 40 39 39 38 37 36 35 34 32 31 30 29 28 27 26 24 23 22 20 19 18 18 17 17 16
59 62 60 58 57 57 56 56 56 58 58 57 56 55 54 53 52 50 49 48 46 44 43 42 41 41 40 39 38 37 36 35 34 33 31 30 29 28 27 26 24 23 22 20 19 19 18 18 18
59 60 58 58 57 58 57 57 58 60 59 57 57 56 56 55 54 52 51 49 47 46 45 44 43 42 41 40 39 38 37 36 35 34 33 32 30 29 28 27 26 24 23 22 21 20 19 19 19
58 57 57 57 57 57 58 58 59 60 59 58 59 59 58 58 56 54 53 50 49 48 46 45 45 43 42 41 40 39 39 38 37 35 34 33 32 31 30 28 27 26 24 23 22 21 21 20 20
55 55 55 56 57 57 58 59 59 60 59 60 59 60 60 59 57 56 55 53 51 49 47 46 45 44 43 42 41 40 39 39 38 37 36 35 34 33 32 30 29 27 26 24 23 23 22 21 21
52 53 54 54 55 55 57 57 60 59 60 61 60 60 61 61 59 57 56 54 53 51 49 48 46 45 43 42 41 41 40 39 39 38 37 36 35 34 33 31 29 28 27 26 25 24 22 22 22
49 50 50 50 51 51 54 57 57 56 59 61 61 60 61 62 60 59 56 55 54 52 51 49 47 45 44 43 42 41 40 40 39 38 37 36 35 34 33 32 30 29 28 27 26 25 24 23 23
45 46 46 45 48 49 53 54 52 55 58 60 61 60 61 62 61 60 58 56 55 54 52 51 49 47 46 44 43 42 40 40 39 38 38 37 36 35 34 33 31 30 29 28 27 26 25 24 23
40 41 41 41 44 48 51 51 49 54 57 58 60 60 60 62 62 61 59 57 56 55 54 53 51 49 47 45 44 43 41 40 40 39 38 37 36 35 35 33 32 31 30 29 27 27 26 25 25
37 37 36 35 38 45 49 50 48 51 54 56 58 59 60 61 62 61 60 59 58 57 56 54 52 50 48 47 45 44 42 40 40 39 38 38 37 35 35 34 32 31 30 29 28 28 27 26 26
35 34 33 32 34 39 45 47 47 48 52 54 56 58 59 60 61 62 62 60 59 58 57 55 54 51 49 48 46 44 42 40 39 39 39 38 37 35 35 34 33 32 31 30 29 28 28 27 27
32 33 32 30 32 35 38 42 43 45 48 51 54 56 58 59 61 62 62 61 61 59 58 56 55 53 50 48 46 44 43 41 40 39 39 38 37 36 35 34 33 32 31 30 30 29 28 28 28
31 31 31 29 30 32 36 38 39 41 45 49 52 55 57 58 60 61 61 63 62 60 59 57 55 54 52 49 48 47 45 43 41 39 38 37 36 36 35 34 33 32 31 30 29 29 29 28 28
28 27 28 27 28 29 31 35 36 38 42 47 51 54 56 57 59 60 61 62 62 60 59 57 56 54 53 51 50 48 45 42 40 38 38 38 37 37 36 35 34 33 32 31 30 30 29 29 29
26 26 26 27 27 28 28 33 32 34 38 43 48 52 54 55 57 59 60 61 62 61 59 58 57 55 54 52 50 49 46 43 42 41 40 39 38 37 36 36 35 34 33 32 31 30 30 30 30
24 25 25 26 26 26 24 29 29 30 34 40 45 49 52 54 55 58 60 61 62 62 61 59 58 56 54 53 51 49 47 45 43 42 41 39 39 37 36 36 35 34 33 33 32 31 31 31 31
22 22 22 22 23 23 22 25 25 27 31 37 43 46 49 52 55 57 58 59 62 63 62 60 59 58 55 53 51 50 48 46 43 42 41 40 39 38 37 36 36 35 34 34 33 33 32 32 33
18 18 19 21 22 22 21 22 23 24 28 33 40 45 48 50 53 55 57 58 60 62 62 60 60 59 57 54 51 49 48 47 44 43 41 40 39 39 39 38 37 36 35 35 35 34 34 34 34
17 16 18 20 21 21 21 20 20 22 26 31 37 43 47 48 51 53 55 57 59 60 62 61 59 59 58 56 53 51 49 47 45 44 42 41 40 40 40 39 38 37 36 36 36 35 35 34 35
16 16 17 19 21 21 20 19 18 19 21 27 33 39 44 46 49 51 53 56 58 58 60 61 60 58 57 56 54 52 51 48 46 45 43 42 41 41 41 40 39 38 37 37 36 35 35 36 36
18 17 17 18 20 21 20 17 16 17 19 23 30 36 41 44 47 51 53 55 56 58 58 60 60 59 57 56 55 53 52 50 48 47 44 43 42 41 41 41 40 39 38 37 36 36 36 37 36
19 18 18 19 20 21 21 17 17 17 18 21 26 33 39 42 45 48 52 54 56 58 59 59 60 58 56 55 54 53 52 52 49 47 45 44 42 41 41 41 40 39 38 37 36 36 36 37 37

GEFSSGP_500_meanwind_150.txt.gz
Wind_Speed
32 32 33 34 36 36 35 33 31 30 32 34 36 37 36 36 34 35 33 32 32 32 31 31 31 31 31 30 30 30 29 29 27 26 25 24 23 22 21 19 18 16 15 13 12 10 9 8 8
35 36 37 39 40 40 37 35 34 33 35 36 38 39 39 39 37 36 35 34 34 34 33 33 33 33 33 32 32 31 31 31 29 28 27 26 25 24 23 21 20 18 17 15 13 12 10 9 9
38 39 41 43 43 42 41 40 38 38 39 39 41 42 42 41 40 38 37 37 37 36 36 35 35 35 35 34 33 33 33 33 32 30 29 28 27 26 24 23 22 20 18 17 15 14 12 11 10
41 43 45 47 46 43 43 44 43 42 42 43 44 45 44 43 42 41 40 40 39 39 38 38 37 37 37 36 36 35 34 34 34 32 31 30 29 27 26 24 23 22 20 19 17 16 14 13 12
44 46 49 50 49 47 47 47 47 47 46 46 47 47 47 46 45 44 43 42 42 41 41 40 40 39 39 38 38 37 36 36 35 34 33 32 30 29 27 26 24 23 22 21 19 17 16 14 13
47 49 52 53 51 50 51 51 51 51 50 50 50 50 49 48 48 47 46 45 44 44 44 43 42 41 41 40 40 39 38 37 37 36 35 33 32 30 29 27 26 25 23 22 20 19 17 16 14
50 52 54 54 54 54 53 54 54 54 53 53 53 54 52 51 51 50 49 48 47 46 46 45 45 43 43 42 41 41 40 39 38 37 36 35 33 32 30 28 27 26 25 23 22 20 19 17 16
51 55 56 56 57 56 56 56 56 56 56 55 57 57 55 54 54 53 52 51 50 49 48 48 47 46 45 44 43 42 41 40 40 39 38 37 35 33 31 30 29 27 26 25 24 22 21 19 18
52 56 57 57 58 58 58 58 58 58 58 58 58 59 58 57 57 55 55 54 52 51 51 50 49 48 47 46 45 43 43 42 41 40 39 38 36 35 32 31 30 29 27 26 25 23 22 20 19
53 56 57 57 59 59 59 59 59 60 60 59 59 60 60 59 59 58 57 56 55 54 53 52 51 50 49 48 47 45 44 43 42 41 40 38 37 36 34 32 31 30 29 27 26 25 23 22 21
54 56 56 57 58 59 60 59 59 60 61 59 60 60 61 61 61 60 59 58 57 56 56 54 53 52 51 50 49 48 46 45 44 42 41 40 39 37 35 34 32 31 30 29 28 26 24 23 22
54 54 55 56 57 58 58 58 59 60 59 58 59 61 62 62 62 62 61 60 59 58 57 56 55 54 54 52 51 50 48 47 45 43 42 41 40 38 37 35 34 32 31 30 29 27 26 24 23
53 53 54 53 54 55 56 57 58 57 57 58 59 61 61 62 63 63 63 62 61 61 59 58 57 57 55 54 53 51 50 48 47 45 44 42 41 40 38 37 35 34 32 31 30 28 27 25 24
51 51 51 49 49 50 52 53 55 53 54 56 57 59 61 61 62 63 64 63 63 62 61 60 60 58 57 55 54 52 51 50 48 47 46 44 42 41 40 38 36 35 33 32 30 29 28 26 25
48 48 47 45 45 45 46 49 49 48 49 51 54 55 58 60 61 62 63 63 63 63 62 62 61 60 59 57 55 54 53 52 50 49 47 46 44 42 41 39 38 36 34 33 31 30 29 28 27
44 43 42 38 39 41 43 43 41 43 45 47 50 52 54 56 59 60 62 63 63 63 63 63 62 62 60 58 56 55 55 53 52 50 48 47 45 43 42 40 39 37 35 34 32 31 30 29 28
40 38 37 35 34 36 39 40 35 38 43 45 46 49 51 53 56 58 60 63 63 64 64 64 63 63 62 60 57 56 55 53 52 50 49 48 47 45 43 41 40 38 36 35 33 32 31 30 29
37 35 34 32 32 34 36 36 32 35 39 42 43 46 48 50 52 55 59 62 63 64 64 65 64 63 63 61 59 57 56 54 52 50 49 48 47 46 44 42 40 39 37 36 35 33 32 31 30
34 35 33 30 32 34 33 31 28 30 34 37 39 42 45 47 51 54 57 61 63 64 65 65 64 64 63 62 61 58 56 54 52 51 50 49 47 46 45 43 41 40 38 37 35 34 33 32 31
33 34 32 29 29 31 30 27 26 26 29 33 36 38 41 44 48 52 55 58 61 64 64 64 64 64 64 62 60 58 56 55 53 51 50 49 48 47 45 44 42 40 39 38 36 35 33 32 31
31 31 30 28 26 27 27 24 24 24 27 30 33 36 39 41 45 50 53 56 58 61 64 64 64 64 63 62 61 59 57 55 54 52 50 49 48 47 46 44 42 41 39 38 36 36 34 33 32
29 28 27 26 26 25 23 22 20 21 25 28 30 34 37 38 42 47 52 55 56 59 62 63 63 64 63 62 60 59 58 55 53 52 50 49 48 47 46 44 43 41 39 38 36 35 35 34 33
28 27 26 25 25 23 21 21 19 19 22 25 28 32 35 37 40 45 50 54 55 57 59 61 64 64 63 62 60 60 58 55 53 53 52 49 48 47 46 45 43 41 40 38 37 36 35 34 33
27 26 26 25 24 22 19 19 18 17 20 23 25 30 33 35 38 43 48 53 54 56 58 59 62 64 63 63 61 60 59 57 54 52 52 50 48 47 45 44 43 41 40 39 37 36 35 34 33
26 25 25 25 23 21 19 17 16 15 18 22 24 27 32 35 37 43 47 51 54 55 57 57 59 62 63 63 61 61 60 57 55 52 51 50 48 46 44 43 43 42 41 40 38 37 36 35 34
25 24 24 24 22 21 18 16 15 14 15 20 24 25 30 34 37 42 45 49 54 55 55 57 59 60 62 62 60 60 60 58 54 52 51 50 48 47 45 43 42 42 42 41 39 38 36 36 35
25 23 23 23 22 21 20 17 14 14 14 16 21 25 27 31 35 40 44 48 52 55 54 55 57 58 61 62 61 60 59 58 55 52 51 50 49 48 45 43 43 42 42 41 40 38 37 37 36
25 24 23 22 23 22 20 17 16 13 14 15 18 23 27 30 33 38 43 47 51 53 53 54 56 58 59 61 61 60 59 58 55 51 50 50 50 48 46 44 44 43 42 41 40 40 38 37 37
25 23 22 22 23 23 23 19 17 15 15 16 17 20 24 29 32 36 42 46 49 52 52 54 55 57 59 61 62 60 59 57 54 52 51 50 49 49 47 46 45 43 42 41 40 40 39 38 37
26 24 23 23 23 24 25 22 18 16 15 16 18 19 22 27 32 35 40 44 47 50 51 52 54 57 60 61 61 61 59 58 55 52 50 51 50 49 48 47 46 45 43 42 41 40 39 38 37

GEFSSGP_500_meanwind_156.txt.gz
Wind_Speed
28 28 28 29 29 29 28 27 28 28 29 30 30 31 31 32 32 35 34 32 29 29 29 30 30 31 31 31 31 30 30 29 29 28 27 26 25 24 23 22 21 20 19 18 17 15 13 13 12
31 31 32 32 32 32 31 31 32 32 32 33 33 33 34 34 36 38 37 34 32 31 31 32 32 32 33 33 33 32 32 31 31 30 29 29 28 26 25 24 23 22 21 20 18 17 15 14 14
33 34 35 35 35 34 34 35 36 36 36 36 36 36 37 37 38 40 39 37 35 34 33 34 34 34 35 35 35 34 34 33 33 32 31 31 30 29 27 26 25 24 23 21 20 19 18 16 15
35 36 38 39 38 37 38 38 39 40 41 41 40 40 40 40 41 42 42 40 38 38 37 36 36 36 36 36 37 37 36 35 35 34 33 33 32 31 29 28 27 26 24 23 22 21 20 18 17
38 39 41 41 40 40 41 42 43 44 44 45 45 44 44 44 45 45 45 43 42 41 40 40 39 39 39 39 38 39 38 37 36 36 36 35 34 33 31 30 29 28 26 25 24 22 21 20 19
40 41 43 44 43 43 44 45 46 47 48 48 48 49 47 47 48 48 48 47 46 44 43 43 42 42 42 41 41 41 40 39 38 38 37 37 35 35 34 32 31 29 28 27 25 24 23 22 21
43 44 45 45 46 47 48 49 50 51 52 52 52 52 51 50 52 52 51 51 50 48 46 46 45 45 44 44 43 43 42 41 41 40 39 38 37 37 35 34 33 31 29 28 27 26 25 24 23
44 47 48 48 49 50 51 52 53 54 55 55 55 55 54 53 55 55 55 54 53 51 50 49 48 47 47 46 46 45 45 44 43 42 41 40 40 39 37 36 35 33 31 29 28 27 26 25 24
45 47 48 49 51 52 53 55 55 56 56 56 57 57 58 57 59 59 58 57 57 55 54 52 51 50 50 49 48 48 47 46 45 44 43 42 41 40 39 37 36 34 33 31 30 29 28 26 25
46 47 49 50 53 54 55 57 57 58 58 58 58 59 61 61 61 61 61 60 59 58 57 56 54 53 52 52 51 51 50 49 48 46 45 44 43 42 40 39 37 36 34 33 31 30 29 27 27
46 47 49 51 54 56 57 57 57 59 60 60 61 60 61 62 63 63 63 62 61 60 60 59 57 56 55 55 54 53 52 51 50 49 47 45 44 43 42 40 39 38 36 34 33 32 30 29 28
46 48 50 52 53 56 57 58 57 58 59 59 59 61 62 63 64 64 64 63 63 62 62 61 59 58 57 57 56 55 55 54 52 50 49 47 46 44 43 42 40 39 38 36 34 33 32 31 29
46 48 50 52 53 54 55 56 57 56 56 57 58 60 61 61 62 63 63 64 63 64 63 62 61 60 59 59 58 57 56 56 54 51 49 48 48 46 45 43 42 40 39 38 36 34 33 32 31
46 47 49 50 52 52 54 53 52 52 52 53 54 55 56 57 58 60 61 62 62 63 63 63 63 61 61 61 60 59 58 57 56 54 52 50 49 48 46 45 44 42 40 39 38 36 34 33 32
47 47 47 48 50 51 51 49 46 48 48 49 50 51 53 54 54 55 57 59 60 61 62 64 63 63 62 62 61 60 59 59 58 56 54 52 50 49 48 46 45 44 42 40 39 37 36 34 33
46 46 46 45 46 46 46 45 43 44 46 46 47 47 49 51 51 52 54 55 56 57 60 62 63 63 63 63 62 61 61 60 59 57 55 54 52 51 50 47 46 45 43 41 40 38 36 35 33
45 45 45 43 43 42 42 43 40 40 42 42 42 42 45 47 48 50 52 52 52 54 57 59 61 62 62 63 63 62 62 61 60 59 57 55 54 52 51 50 47 46 44 42 41 39 37 36 34
46 46 43 41 40 39 38 38 37 38 39 40 40 39 41 43 43 46 49 50 51 52 55 56 58 60 62 62 62 62 63 63 61 61 58 57 55 53 52 51 49 46 45 44 42 40 38 37 35
45 43 41 39 38 37 36 35 34 35 37 39 38 37 36 38 40 41 44 47 49 51 53 55 57 58 61 62 62 62 63 64 62 62 60 57 55 54 53 52 50 47 45 44 42 41 39 38 36
43 42 40 37 34 35 34 33 32 33 35 35 35 35 35 35 36 37 40 43 45 48 51 53 55 58 60 61 61 61 61 62 61 62 61 59 56 54 52 52 49 47 46 44 42 41 40 38 37
41 41 40 38 35 33 34 32 31 32 32 32 32 32 32 33 33 33 37 41 43 45 49 52 52 55 59 61 62 61 62 63 62 61 61 59 57 55 53 52 50 48 47 46 43 41 40 39 38
42 40 38 36 34 32 33 35 31 32 30 30 29 28 28 30 31 31 34 37 40 44 47 50 52 53 57 59 61 63 62 63 62 62 61 61 58 55 52 51 51 49 47 46 45 43 41 40 38
42 40 37 34 32 32 31 34 32 33 30 29 27 26 25 26 27 29 31 34 38 42 46 48 49 52 56 59 59 61 61 61 63 63 61 59 59 56 52 51 50 48 46 46 44 43 41 40 39
41 40 37 34 33 31 31 33 33 32 30 28 25 24 23 24 25 25 27 32 35 39 44 46 48 51 54 57 59 59 59 60 61 61 60 59 57 56 53 51 49 47 46 45 43 42 42 41 39
41 41 39 36 34 31 31 33 32 30 29 28 24 23 24 24 25 24 26 29 33 36 41 44 47 50 52 54 57 58 58 58 60 60 59 59 58 56 53 50 49 47 46 45 43 42 42 40 38
41 40 38 38 37 33 30 31 30 29 29 28 25 23 23 24 25 25 26 28 31 34 40 43 46 49 51 52 54 56 57 58 60 61 59 59 58 56 55 52 49 47 46 44 43 42 41 39 38
40 38 38 38 38 36 33 32 30 29 27 26 25 24 24 23 24 26 27 27 31 34 37 42 46 47 48 50 52 55 56 56 57 58 58 58 57 57 53 51 49 47 45 44 43 42 41 39 39
39 38 37 37 38 38 35 33 30 28 27 26 25 25 25 24 24 24 27 28 28 33 37 41 44 47 47 48 49 51 52 56 56 55 58 58 57 56 53 49 48 47 45 44 43 42 41 39 38
39 38 38 38 37 38 38 34 31 30 28 26 25 24 25 24 23 24 25 27 29 31 35 40 42 46 49 49 49 48 50 54 55 54 55 55 55 55 53 50 47 46 44 44 43 42 40 39 38
39 39 38 38 37 37 38 36 31 30 29 28 26 25 24 24 23 25 25 26 29 32 35 39 40 44 48 50 49 47 48 50 53 54 53 54 54 53 52 50 48 46 44 44 42 41 40 38 37

GEFSSGP_500_meanwind_162.txt.gz
Wind_Speed
25 25 25 25 25 25 24 24 24 24 24 24 24 24 25 26 26 27 26 24 24 23 23 24 24 25 25 26 26 27 27 27 27 27 26 26 25 24 23 22 21 20 20 19 17 17 16 15 14
27 27 27 27 28 27 26 26 27 26 26 27 27 27 28 29 29 28 27 27 27 26 26 26 26 27 27 28 28 28 29 29 29 29 28 28 27 26 25 24 23 23 22 21 19 19 18 17 16
28 28 29 29 29 30 30 30 30 30 30 30 30 31 31 31 31 31 30 29 29 29 29 28 28 29 29 30 30 30 30 31 31 31 30 30 29 29 28 27 26 25 24 23 22 21 20 19 18
29 30 31 31 31 31 33 33 34 34 33 33 34 34 34 34 35 34 34 33 32 32 32 32 31 31 31 32 32 32 32 32 33 33 33 32 32 31 31 30 28 28 27 25 24 23 22 21 20
31 31 32 32 32 33 35 35 36 37 37 37 37 37 38 38 38 38 37 37 36 35 35 35 35 34 34 34 34 34 34 34 35 35 35 35 34 33 33 32 31 30 29 27 26 25 23 22 21
32 32 33 34 34 35 37 38 39 39 40 40 41 41 41 42 42 42 41 40 39 39 38 38 38 37 37 37 37 37 36 36 36 37 37 37 36 36 35 34 33 32 31 29 28 27 26 24 23
33 33 34 35 36 37 38 40 41 42 42 43 45 45 44 45 46 46 45 45 44 43 42 42 41 41 40 40 40 40 39 39 39 39 39 39 38 37 37 36 34 33 32 31 30 29 28 26 25
33 35 36 37 38 39 40 42 43 45 45 46 48 49 48 48 49 49 49 49 47 47 46 46 45 45 44 43 43 43 42 42 41 41 41 41 40 39 39 38 36 35 34 33 32 31 30 28 27
33 35 37 38 39 40 41 43 44 46 47 48 50 51 51 51 51 52 52 52 51 50 49 49 49 48 47 47 46 46 45 45 44 44 43 43 42 42 41 40 39 37 36 34 33 32 31 30 29
34 36 37 38 39 40 41 43 44 47 49 50 51 53 53 54 54 54 54 54 54 54 53 52 52 52 51 50 50 49 49 48 47 46 46 45 45 44 43 42 40 39 38 36 35 34 33 31 30
34 36 37 38 39 40 42 43 45 48 49 51 51 53 54 55 56 57 57 56 57 57 57 55 55 55 54 53 53 52 52 51 50 49 48 48 47 46 45 44 42 41 40 38 36 35 34 33 31
33 34 36 37 39 41 43 44 46 48 50 51 52 53 55 55 55 56 58 58 59 59 60 59 59 58 58 57 56 55 55 54 53 53 51 50 49 48 47 46 44 42 41 40 38 37 36 34 33
32 33 35 37 39 42 44 46 48 48 49 50 51 52 54 55 56 56 58 58 59 61 61 61 62 61 61 60 59 58 58 57 56 56 55 54 52 51 49 48 46 44 43 41 40 39 37 36 35
32 34 36 38 39 41 43 45 48 48 48 49 50 50 52 54 55 54 56 57 58 60 61 62 63 61 62 62 61 61 61 60 59 58 57 56 55 54 52 51 49 48 45 43 41 40 39 38 36
33 35 37 38 40 41 43 44 47 47 48 49 48 49 49 50 53 53 54 55 56 57 60 62 62 61 62 63 63 62 63 62 61 60 59 58 57 56 55 53 51 50 47 45 44 42 41 39 38
34 35 36 38 40 41 43 42 44 45 47 46 46 47 47 48 50 51 51 52 53 54 57 60 62 62 62 63 63 64 64 64 63 61 60 60 59 58 57 55 52 51 49 47 45 43 42 41 39
35 36 37 38 40 42 43 42 40 42 43 44 43 44 45 45 47 47 48 48 51 53 55 57 60 61 61 62 61 64 65 65 64 62 61 60 60 59 58 56 54 52 51 49 47 44 42 41 40
36 37 37 38 40 42 43 42 40 39 39 40 41 41 43 43 44 44 45 47 49 51 52 54 56 59 59 60 60 61 63 64 65 63 61 61 61 61 60 58 56 53 52 50 48 46 44 42 41
37 38 39 39 40 41 41 41 39 36 36 37 37 37 39 39 40 40 42 43 46 47 49 51 52 56 58 58 58 59 60 63 64 63 62 61 61 61 60 59 58 55 53 51 49 47 45 43 41
38 39 39 38 39 40 40 39 36 34 34 35 35 35 36 35 35 36 38 40 42 43 45 48 50 53 55 56 57 57 59 61 63 63 62 61 61 61 59 59 58 57 54 52 51 49 47 44 42
38 40 40 40 39 39 40 37 34 33 33 34 34 34 33 33 33 34 36 37 39 40 42 44 48 49 51 54 57 57 58 60 62 63 62 61 61 62 61 59 59 58 55 52 51 49 47 45 44
38 39 40 41 41 40 40 38 32 32 33 33 33 33 32 32 32 32 33 34 35 37 39 41 43 46 47 51 54 56 57 58 60 62 61 61 61 62 62 60 60 59 57 53 52 50 48 48 46
40 40 40 41 40 39 37 38 34 33 33 32 32 31 30 31 31 30 32 33 34 34 36 38 39 43 45 48 51 55 56 56 58 61 62 59 59 61 60 59 59 59 57 54 52 50 48 47 45
40 40 40 40 39 38 37 37 35 34 33 33 32 31 30 29 30 30 30 31 31 31 32 35 38 40 43 45 48 51 54 55 56 59 60 58 58 59 60 59 58 58 57 56 52 49 47 47 45
40 41 41 41 40 38 38 37 35 35 34 33 32 31 31 30 29 28 27 27 29 29 30 31 34 37 42 44 46 50 52 53 54 56 56 56 57 58 59 59 59 58 57 56 55 51 47 47 45
40 41 41 42 41 39 37 36 35 34 33 33 32 32 31 30 29 28 27 28 28 28 29 30 32 36 39 41 45 48 49 51 53 55 55 54 53 55 58 59 59 59 59 57 56 53 47 46 45
40 40 41 42 42 41 39 38 34 33 33 32 32 32 31 30 30 29 27 28 28 29 29 29 31 35 37 39 42 46 47 48 51 53 52 51 51 54 56 56 58 58 57 55 55 54 48 45 44
40 40 41 42 43 44 42 39 36 35 33 32 32 32 32 30 30 29 27 27 26 28 29 28 30 33 35 36 39 44 45 46 50 53 51 51 49 51 53 53 56 56 56 55 53 52 51 47 44
39 39 40 41 42 44 45 40 37 36 34 33 34 34 33 32 31 29 27 26 26 27 27 27 28 31 34 35 38 42 43 45 49 51 52 51 48 50 51 53 54 54 55 53 51 50 50 48 44
39 40 40 41 42 43 45 41 37 36 35 35 34 33 33 32 30 28 27 26 25 25 26 26 27 30 33 35 37 41 42 44 46 49 50 49 48 49 50 51 53 52 51 51 50 48 48 47 43

GEFSSGP_500_meanwind_168.txt.gz
Wind_Speed
23 23 23 24 24 24 24 24 23 23 22 22 23 23 23 23 23 23 23 22 22 22 22 22 22 22 23 24 23 23 23 23 23 23 23 23 23 22 21 20 19 19 18 17 16 15 14 14 13
25 25 25 25 26 25 25 25 24 24 24 25 25 26 26 26 25 25 25 24 24 24 24 24 24 24 24 24 25 25 25 24 24 24 24 24 24 24 24 23 22 21 20 19 19 18 16 15 15
26 26 27 27 27 27 27 27 27 27 27 27 28 28 29 28 28 28 27 27 27 27 27 27 27 27 27 26 26 27 27 27 26 26 26 26 26 25 25 25 24 23 22 22 21 20 18 17 17
26 27 28 28 28 28 28 29 29 29 30 30 31 31 32 31 31 31 31 30 30 30 30 30 30 30 30 29 29 29 29 29 28 29 28 28 28 27 27 26 26 26 25 24 23 21 21 20 19
27 28 29 29 29 29 30 30 31 31 32 32 33 34 34 34 34 34 34 34 33 33 33 32 33 33 33 33 32 32 31 31 30 30 30 30 30 29 29 28 28 27 26 25 24 24 23 22 21
28 29 29 29 30 31 32 32 33 33 33 34 35 36 37 37 37 37 37 37 37 36 36 36 35 35 35 35 36 35 35 34 33 33 32 32 32 31 31 30 30 29 28 27 26 26 25 24 23
28 29 29 29 30 31 31 33 34 35 35 36 37 38 38 39 40 40 41 41 41 40 40 39 39 39 38 38 38 38 38 37 37 36 35 34 34 34 33 32 32 31 30 29 28 28 27 26 25
27 28 28 28 29 30 31 33 35 36 37 38 39 40 41 42 43 43 44 44 44 44 43 43 43 42 42 42 41 41 41 40 40 40 39 38 37 36 35 34 35 34 33 31 30 29 29 28 27
25 26 27 28 29 30 32 33 35 37 38 40 41 43 44 44 45 46 47 47 47 47 47 46 46 46 45 45 45 45 44 44 43 43 42 41 40 39 38 37 36 36 35 34 33 31 30 29 29
25 26 27 28 30 31 33 35 37 38 40 42 43 45 46 47 48 48 49 49 49 50 49 49 49 49 49 49 48 48 47 47 46 46 45 44 43 42 41 40 39 38 37 36 35 34 32 31 31
25 26 28 29 30 32 33 35 38 40 42 44 45 46 47 48 49 50 50 51 51 51 52 52 52 51 51 51 51 51 50 50 49 49 48 47 46 45 43 43 42 41 40 38 37 36 35 34 33
25 26 28 29 30 32 33 36 38 41 43 44 46 47 48 48 50 51 52 52 53 53 53 54 54 54 54 54 54 54 53 53 52 51 51 51 50 48 46 45 44 43 43 41 40 38 37 37 35
25 26 27 28 30 32 34 36 38 41 43 44 46 48 48 49 50 51 52 53 53 54 54 55 56 56 57 57 57 57 56 55 54 55 54 53 52 51 50 48 47 47 46 44 42 41 41 39 37
26 27 28 30 31 32 34 36 39 40 42 43 44 46 48 49 49 50 52 52 53 53 54 55 56 57 58 59 60 60 59 58 58 58 57 56 55 54 53 51 51 49 49 47 45 44 43 42 40
27 28 29 31 33 34 35 37 39 40 41 42 43 45 47 49 49 50 51 52 53 54 54 55 57 58 59 61 62 62 62 61 61 60 60 59 59 58 57 54 54 53 52 50 48 46 45 44 42
28 29 31 32 33 34 36 35 38 40 40 41 42 44 46 48 49 49 50 50 51 53 54 55 56 58 59 61 62 63 63 63 63 63 62 62 62 61 60 57 57 56 54 53 51 49 47 46 44
29 30 30 32 34 34 35 35 36 39 39 40 41 43 44 46 47 47 48 48 50 52 53 53 54 56 58 59 61 62 64 64 64 64 64 64 64 63 63 60 59 59 57 55 54 52 50 48 46
30 30 31 32 34 34 35 35 35 38 39 40 41 42 41 43 44 45 47 47 48 50 51 53 53 54 56 58 59 61 63 64 64 64 64 64 64 64 64 63 62 61 60 58 57 55 51 50 48
31 32 33 33 34 35 35 36 36 37 38 39 40 40 40 41 42 43 44 45 46 48 50 51 52 53 54 56 58 59 60 62 63 63 62 63 63 63 63 64 64 63 62 60 58 57 54 53 51
33 34 34 34 34 36 36 36 36 37 38 39 40 40 40 40 40 40 41 42 42 45 48 49 50 51 52 54 57 59 59 59 60 61 61 61 62 62 63 63 64 63 63 61 60 59 57 55 53
34 35 35 35 35 35 37 36 36 37 38 39 39 40 40 40 39 39 39 39 40 42 45 47 48 50 51 52 55 57 57 56 57 58 59 60 60 61 61 60 62 63 63 62 61 60 58 56 53
34 35 36 36 36 36 37 37 36 38 39 40 40 40 40 39 39 38 39 38 38 39 42 45 46 48 49 50 52 53 54 53 53 55 57 57 58 59 60 60 60 61 62 61 59 60 60 58 55
35 36 37 37 37 37 37 38 37 40 40 40 41 40 40 39 38 38 38 37 37 38 40 42 43 44 45 46 48 50 51 51 50 52 54 56 57 57 57 58 59 59 60 59 58 59 59 57 56
36 37 38 37 37 37 37 39 39 41 41 41 41 41 40 39 38 39 38 37 36 37 38 40 40 41 42 43 44 46 49 50 49 50 53 55 56 56 56 57 58 58 58 58 58 59 58 57 55
36 37 39 39 39 38 38 40 39 41 41 42 42 42 42 41 40 39 38 36 36 35 37 40 41 40 39 40 41 43 46 48 48 49 51 53 55 55 55 56 56 57 57 57 57 59 58 57 55
36 37 38 40 41 40 39 40 40 41 42 43 43 43 42 41 40 39 38 37 37 35 36 38 39 38 37 38 39 41 43 45 47 47 48 51 53 54 54 55 55 55 56 56 57 59 58 57 55
36 37 39 41 42 42 41 41 40 41 42 42 42 42 42 42 40 38 37 37 37 37 37 37 36 36 36 36 36 37 39 41 44 46 47 49 51 54 53 53 52 54 56 56 56 57 57 56 55
36 38 40 41 43 44 43 42 42 43 42 42 41 41 41 41 40 38 37 37 36 36 36 35 35 36 35 34 34 35 36 39 41 43 45 47 50 52 52 52 51 52 55 55 55 56 56 56 55
37 38 40 41 42 45 46 41 43 43 43 43 42 42 41 41 40 38 37 38 36 35 35 35 35 33 31 31 32 32 34 35 36 38 42 44 48 51 50 49 49 52 54 53 52 55 55 55 54
38 39 40 41 42 43 45 43 42 43 44 45 44 42 41 41 40 39 39 39 37 35 34 33 32 31 29 28 29 31 32 33 33 35 40 41 44 47 48 48 48 51 52 50 50 53 54 54 53

GEFSSGP_500_meanwind_174.txt.gz
Wind_Speed
20 21 21 21 22 22 22 21 21 22 22 22 23 23 23 23 23 23 22 21 21 21 21 21 21 22 22 22 22 23 23 24 24 24 24 24 24 23 23 22 21 20 19 19 18 17 16 15 14
21 21 22 23 23 23 23 23 23 23 24 24 24 25 25 25 25 24 24 23 23 24 24 24 24 23 23 23 24 24 25 25 25 25 25 25 25 25 24 24 23 22 22 21 20 19 19 18 16
22 22 23 23 24 24 25 24 25 25 25 26 26 27 27 27 27 26 26 26 25 26 26 26 26 26 26 26 26 26 27 27 27 27 27 27 27 26 26 25 25 24 24 23 23 22 21 20 18
23 24 24 25 25 25 26 26 26 27 27 27 28 28 28 29 28 28 28 28 28 28 29 29 29 29 29 29 28 28 29 29 29 29 29 29 28 28 28 27 26 26 25 25 24 24 23 22 21
23 24 25 25 25 26 27 27 28 28 28 28 29 30 30 30 31 31 31 31 31 31 31 31 31 32 32 32 32 32 31 32 32 31 31 31 30 30 30 29 28 28 27 27 26 25 25 25 23
22 23 24 24 25 26 26 27 29 29 30 30 31 32 31 32 32 33 33 34 34 34 34 34 34 34 34 34 34 34 34 34 35 35 34 33 33 32 32 32 31 30 30 29 28 27 27 26 26
20 21 22 23 25 26 26 28 29 30 31 31 32 33 33 34 34 35 36 37 37 37 37 37 37 37 38 38 38 38 37 37 37 37 37 36 36 35 35 34 33 33 32 31 30 29 28 28 27
19 20 21 22 23 24 25 27 28 30 31 32 33 34 34 35 35 36 37 38 39 40 40 40 40 40 40 40 40 41 41 40 40 40 40 39 39 39 38 37 36 35 35 34 33 31 31 30 29
19 20 20 21 22 23 24 26 27 29 31 33 34 35 36 37 37 38 39 40 41 42 43 43 43 43 43 43 43 44 44 44 44 43 43 43 42 42 41 41 39 38 37 37 36 35 34 33 31
17 18 19 21 22 23 25 26 28 29 31 33 35 36 37 38 39 40 40 41 43 44 45 46 46 46 46 46 46 47 47 47 47 47 46 45 45 44 44 44 42 41 40 39 38 37 37 36 34
16 18 19 20 22 23 24 26 28 30 31 33 35 36 38 39 41 41 42 43 44 45 46 48 49 49 49 49 49 49 49 50 50 50 49 48 48 47 47 46 45 44 43 42 40 40 39 38 37
17 18 19 21 22 24 25 27 28 31 32 33 34 36 38 39 42 43 44 45 46 47 48 49 50 51 51 52 52 52 52 52 53 53 52 51 50 50 49 48 48 47 46 44 43 42 41 40 40
17 18 20 22 23 25 26 28 29 31 33 34 36 37 39 40 42 44 45 46 47 48 49 50 51 52 53 53 54 55 55 55 56 56 55 54 53 52 52 51 50 50 49 47 46 45 44 42 42
19 20 21 23 24 25 27 28 29 30 32 34 36 38 39 40 42 43 44 46 47 49 49 50 51 52 53 54 55 56 57 57 57 57 57 57 57 56 55 54 53 53 52 51 49 48 47 46 45
20 21 22 23 25 26 27 28 30 30 32 34 36 38 38 40 41 42 43 46 47 48 49 50 51 52 53 54 55 56 57 58 59 59 59 60 60 59 59 57 56 56 55 54 53 51 50 49 48
21 22 23 23 25 26 27 27 30 31 32 33 35 36 37 39 40 41 42 44 45 46 48 49 50 52 53 55 56 56 57 58 60 60 61 62 63 63 62 60 59 59 58 57 56 55 54 52 51
23 23 23 24 24 25 26 27 29 31 31 32 33 34 36 37 38 39 41 42 44 45 46 48 49 51 53 54 55 56 57 58 59 60 62 63 64 65 65 64 62 61 61 60 59 58 57 56 55
23 24 24 24 25 26 26 27 29 31 31 32 33 34 34 35 37 38 40 41 42 44 45 45 46 50 53 54 55 56 57 59 59 61 63 64 64 65 66 66 65 64 63 62 61 61 60 58 57
24 24 24 24 25 26 26 27 28 29 31 31 32 33 34 34 35 37 39 40 41 43 44 44 46 48 51 52 53 54 56 58 59 60 61 62 64 65 66 66 66 65 64 64 64 63 62 61 60
24 25 25 26 26 27 26 26 27 28 29 31 31 31 32 34 34 35 37 39 41 41 42 42 43 45 48 50 51 52 54 55 57 59 60 61 62 64 66 65 66 66 66 66 66 65 64 63 61
25 26 27 27 27 27 28 27 28 29 30 30 31 31 32 34 34 34 35 38 39 40 41 42 42 43 46 48 50 52 54 56 56 57 58 59 60 62 64 64 65 66 67 66 66 65 65 63 62
26 27 28 28 28 28 28 29 29 30 30 30 31 32 34 34 34 35 36 38 39 40 41 42 42 44 45 46 50 52 53 54 54 55 56 58 59 60 61 62 62 63 63 63 62 63 63 62 62
28 28 29 29 29 29 29 30 30 30 30 31 32 33 35 35 35 36 36 37 39 40 41 42 43 44 45 46 47 49 51 52 52 53 54 56 58 59 59 60 60 60 60 60 60 60 61 61 60
29 29 30 29 29 29 29 31 32 32 31 32 32 33 34 35 36 36 37 38 39 40 40 41 43 43 44 46 47 48 50 50 50 51 52 53 56 58 59 60 59 57 59 60 60 59 59 59 59
29 30 31 31 31 31 30 31 32 33 33 33 34 34 35 36 37 38 39 39 41 41 40 40 41 42 43 44 46 48 48 48 48 48 50 51 53 55 57 58 59 57 57 58 59 59 58 57 58
29 30 30 32 33 33 32 32 33 34 35 36 36 37 37 37 38 40 41 41 41 41 40 40 40 41 43 44 45 46 46 46 47 47 49 50 50 52 54 57 57 56 55 56 56 57 58 58 57
30 30 31 33 35 35 34 34 34 35 36 36 37 37 38 38 39 41 41 41 42 42 41 41 41 41 41 42 44 44 44 44 44 44 46 47 48 50 51 54 55 55 55 56 56 55 57 58 57
31 32 32 33 36 38 36 35 36 37 37 37 38 39 39 39 40 41 41 41 43 42 42 42 42 41 41 42 43 42 41 41 41 41 41 43 45 46 49 52 53 53 54 55 56 54 55 56 56
32 32 33 35 36 38 39 37 38 38 39 39 39 39 39 40 41 42 41 42 43 42 42 42 41 40 40 40 40 39 38 38 37 37 39 40 42 43 45 49 51 51 53 55 56 54 53 53 53
33 33 34 35 36 37 39 37 37 38 39 40 40 40 41 40 41 42 42 43 43 43 42 42 40 39 38 37 36 36 35 35 35 35 36 37 38 40 42 46 47 48 50 52 53 53 52 51 52

GEFSSGP_500_meanwind_180.txt.gz
Wind_Speed
19 19 20 21 21 21 21 21 21 21 20 21 21 22 23 23 23 23 23 22 22 22 22 23 23 23 23 24 24 24 24 24 24 24 24 24 24 24 24 24 23 23 22 21 20 20 20 20 19
20 21 21 21 22 22 23 23 23 22 22 23 24 24 25 25 25 25 25 25 24 24 24 25 25 25 25 25 25 26 26 26 26 26 26 25 25 25 25 26 25 25 24 23 23 22 22 22 22
21 22 22 22 22 23 25 23 23 23 24 25 25 26 26 26 27 27 27 27 27 27 27 27 27 27 27 27 27 27 27 27 28 28 28 28 28 27 27 27 27 26 26 26 25 25 24 24 23
21 22 23 23 23 24 24 23 23 25 26 27 27 27 27 28 28 29 29 30 30 29 29 30 30 30 30 29 29 29 29 29 29 29 29 30 30 30 29 29 28 28 28 28 27 27 26 26 25
21 22 23 23 24 25 24 24 25 26 26 27 28 28 28 29 30 30 30 31 31 31 31 32 32 32 32 32 32 32 32 32 32 32 32 32 32 32 32 31 31 30 30 30 29 29 28 28 27
20 22 22 23 24 25 25 25 26 27 26 28 29 29 30 30 31 31 32 33 33 33 33 34 34 34 35 35 35 35 35 34 34 35 35 35 35 35 34 34 33 32 32 32 32 31 30 30 29
19 21 21 23 24 25 24 25 26 27 28 28 30 31 31 32 32 33 34 34 35 35 36 36 36 37 37 37 37 37 37 38 38 37 38 37 37 37 37 36 36 35 35 34 34 33 33 32 31
18 19 20 22 23 24 23 25 26 27 28 28 30 31 31 32 33 34 35 35 36 37 37 38 38 39 39 40 40 40 40 40 41 41 41 40 40 40 40 39 39 38 38 37 36 36 35 35 34
17 18 19 20 22 22 23 24 25 27 28 29 30 31 31 32 34 35 36 36 38 38 38 39 40 41 41 42 42 42 43 43 43 43 43 43 43 43 43 43 42 41 40 40 39 38 38 37 36
16 17 18 19 20 21 22 23 24 27 28 30 31 32 32 33 34 36 37 38 39 40 40 40 41 42 43 43 44 44 44 45 45 46 46 46 45 45 45 45 44 43 43 42 41 41 40 39 38
16 16 17 18 20 21 22 23 25 26 28 30 31 32 34 35 35 36 38 38 39 40 41 42 42 43 44 44 45 46 46 47 47 48 48 48 48 48 48 48 47 46 45 44 44 43 42 42 41
16 16 17 18 20 21 22 23 25 26 28 30 32 33 35 36 37 38 38 40 40 41 42 43 44 45 46 46 47 48 48 49 50 50 50 51 51 51 51 51 50 49 48 47 47 46 45 44 44
16 17 18 19 20 21 23 24 25 26 28 30 32 33 34 36 37 39 40 41 42 43 44 46 47 48 48 48 49 50 51 51 52 52 53 53 54 54 53 53 53 52 51 50 49 49 48 48 47
17 18 19 20 21 22 23 24 26 27 29 30 32 33 34 36 37 38 40 41 42 43 44 45 47 49 49 50 49 50 51 52 52 53 54 54 55 56 56 56 56 55 54 53 52 51 51 50 50
18 19 20 20 22 22 24 24 26 27 29 30 31 32 33 35 36 37 39 41 42 42 43 45 47 48 49 49 50 50 52 53 54 54 55 56 56 57 58 58 58 58 57 57 55 54 53 53 52
20 20 20 21 22 23 24 24 26 27 29 30 31 32 33 34 36 37 39 40 41 42 44 45 46 48 49 50 50 51 52 53 54 55 55 56 57 59 59 60 60 60 59 59 58 57 56 55 55
20 21 22 22 22 23 24 25 26 27 28 29 30 32 33 34 35 36 38 39 40 42 43 44 46 47 49 50 51 51 52 53 54 55 55 56 57 58 59 60 60 61 60 60 59 59 59 58 58
22 22 23 23 23 24 25 25 26 27 28 28 30 31 32 33 34 35 37 38 39 40 42 43 44 45 47 48 49 50 51 53 54 54 55 56 56 58 58 59 60 61 61 61 61 61 61 61 60
23 24 24 24 25 26 26 26 26 27 28 29 31 32 33 33 34 35 36 37 37 39 40 41 42 43 44 45 47 48 49 51 52 53 54 55 56 57 57 59 60 60 61 62 63 63 62 62 61
24 25 25 26 26 28 28 27 27 28 29 30 31 32 33 33 34 35 36 36 37 38 39 40 41 42 43 44 45 46 47 48 50 51 52 54 55 56 57 58 59 60 61 62 63 63 63 62 62
26 26 27 28 28 29 30 29 28 29 30 31 32 32 32 33 34 34 35 36 36 37 37 38 40 41 42 43 43 44 45 47 49 51 53 54 55 56 56 56 57 58 59 61 62 63 63 62 62
27 28 29 30 30 30 31 32 29 30 30 31 31 32 32 33 34 34 35 36 36 37 37 38 40 41 42 42 43 45 46 47 49 51 52 54 56 57 57 56 57 58 58 59 60 61 61 61 62
28 28 30 31 31 31 31 34 31 31 30 30 31 32 32 33 34 35 36 36 37 38 38 39 40 41 42 42 44 44 46 47 49 50 51 53 55 56 56 56 56 56 57 57 58 59 59 59 60
29 30 31 32 32 32 31 34 33 32 32 32 32 32 33 34 35 36 37 37 38 39 39 40 41 41 43 43 43 44 45 46 48 49 50 52 54 55 55 55 55 56 56 56 57 57 57 58 58
30 30 32 33 33 33 33 34 33 34 34 33 34 34 34 36 36 36 38 38 39 39 40 41 42 43 43 44 44 45 46 47 48 49 50 51 52 54 55 55 55 55 56 56 56 55 56 57 57
30 31 31 33 35 35 35 35 34 34 35 35 35 35 35 37 37 38 38 39 40 40 41 42 42 43 44 44 45 46 46 47 48 49 49 49 50 51 53 53 54 54 54 54 54 54 55 56 56
31 31 32 34 36 37 37 36 35 34 35 36 36 37 37 38 38 38 39 40 40 41 41 42 42 43 45 46 47 47 47 47 47 47 47 48 49 51 51 52 51 52 52 52 53 53 53 55 55
34 33 33 34 37 38 38 36 36 36 36 36 37 38 39 38 39 39 40 40 41 41 42 43 43 44 45 46 47 47 47 47 46 46 47 47 49 49 50 49 50 50 50 50 51 51 52 53 54
34 34 35 36 37 38 39 38 37 37 38 38 38 39 39 39 39 40 40 41 42 42 44 44 45 45 46 47 47 47 47 46 45 45 45 46 47 47 49 49 49 49 49 48 48 48 49 51 53
36 36 36 37 37 38 39 38 37 37 38 38 39 39 39 39 39 40 41 42 43 44 45 46 46 46 47 48 47 46 46 44 44 44 44 44 45 45 46 46 47 47 47 47 47 47 47 49 51

GEFSSGP_500_meanwind_186.txt.gz
Wind_Speed
20 20 20 20 21 21 21 20 20 20 20 20 20 21 21 21 20 20 20 20 21 20 21 21 22 22 22 22 23 23 23 24 24 24 24 24 24 24 24 23 23 23 22 22 22 21 21 21 21
21 21 22 22 22 22 21 20 20 21 21 21 21 22 22 22 22 21 21 22 22 22 22 23 23 23 23 23 24 24 24 24 25 25 25 25 26 26 25 25 25 25 24 24 24 24 23 23 22
21 21 22 23 23 23 22 20 21 22 22 22 22 23 23 23 23 23 23 24 24 24 24 24 24 25 25 25 25 26 26 26 26 26 26 27 27 27 27 27 27 27 26 26 26 26 25 25 25
20 21 21 22 23 23 23 22 22 22 23 23 23 23 24 24 25 24 25 25 25 26 26 26 26 27 27 28 28 28 28 28 28 28 28 28 28 29 29 29 29 29 28 27 27 28 28 27 27
19 20 21 22 23 23 23 23 23 23 23 24 24 24 24 25 25 26 26 27 27 27 27 28 28 29 29 29 30 30 30 30 30 30 30 30 30 31 31 31 31 31 31 30 30 29 30 30 29
18 19 20 21 22 22 23 23 24 24 24 25 25 25 25 26 26 27 28 28 29 29 29 29 30 30 30 31 31 32 32 32 32 33 33 33 33 33 33 33 34 33 33 33 33 33 32 31 31
18 18 19 21 21 21 22 24 24 24 24 25 25 26 26 27 28 28 29 29 30 30 30 31 32 32 33 33 33 34 34 35 35 35 36 36 36 36 36 36 36 36 36 35 35 35 35 34 33
18 19 19 20 20 20 22 23 24 24 25 25 25 25 26 27 28 28 29 30 30 31 31 32 33 34 35 36 36 36 36 37 38 38 38 38 38 39 39 39 39 39 38 38 38 37 37 37 36
17 18 18 19 19 20 21 22 23 24 24 25 25 25 25 26 27 28 29 30 31 32 33 34 35 36 36 37 38 38 38 39 39 40 40 40 40 41 41 41 41 41 41 40 40 40 39 39 39
16 17 17 18 18 19 20 21 22 23 24 25 25 25 25 26 27 28 29 30 31 32 33 34 35 36 36 37 38 39 40 40 40 41 42 42 42 43 43 43 43 43 42 42 42 42 41 41 40
17 17 17 17 17 18 19 20 21 22 23 24 25 26 26 27 28 29 30 31 32 33 34 35 35 36 37 38 39 40 41 42 42 43 44 44 44 44 45 45 45 45 45 44 44 44 44 44 43
17 17 17 17 18 18 19 19 20 21 23 24 25 26 27 28 29 30 31 32 33 34 35 36 36 37 38 39 40 41 43 44 44 45 45 46 46 46 47 47 47 47 47 47 47 47 47 47 46
17 17 18 18 19 19 20 20 20 21 23 24 25 26 27 28 29 30 31 32 34 35 35 36 37 39 40 41 42 42 44 45 46 46 47 47 48 48 48 48 48 49 49 49 49 49 49 49 49
18 18 19 19 19 20 21 21 21 22 24 24 25 26 28 28 29 31 32 33 34 35 36 38 38 39 41 42 43 44 45 46 47 48 49 49 50 50 50 50 50 51 52 52 52 51 51 51 51
19 19 20 20 21 21 22 21 22 23 24 25 25 26 28 29 30 31 33 33 34 35 37 38 40 41 42 43 44 45 46 47 49 49 50 51 52 52 52 52 52 53 54 54 54 54 54 53 54
20 20 20 21 21 22 22 21 22 24 24 25 26 27 28 29 31 31 32 33 34 35 36 38 40 42 43 45 46 46 48 49 50 51 52 52 53 54 54 54 54 55 56 56 56 56 56 56 55
21 21 21 21 22 23 23 22 23 24 25 26 27 28 29 30 30 31 32 33 34 35 36 37 39 41 43 45 46 47 48 49 51 52 53 54 54 55 56 56 57 57 57 57 58 58 58 58 57
22 22 22 22 23 23 23 23 24 25 26 27 28 29 29 29 30 31 32 34 35 36 37 37 38 40 42 43 43 45 47 48 49 51 52 54 54 55 56 57 58 58 57 58 59 60 60 60 60
24 24 23 23 24 24 24 25 26 26 27 27 28 28 28 29 30 32 33 34 35 35 36 36 37 38 39 40 42 43 44 46 48 49 51 53 54 54 55 56 57 58 58 59 60 60 61 61 60
26 25 24 25 25 26 25 25 26 26 27 28 29 29 29 30 31 32 33 34 34 34 34 35 35 36 38 38 40 42 42 43 45 46 48 50 52 53 54 54 55 57 57 57 59 59 59 59 59
27 26 26 26 26 27 27 26 26 27 28 28 29 29 30 31 31 32 33 33 33 34 34 35 35 36 37 38 39 40 41 42 44 46 47 49 51 51 52 52 53 54 54 55 57 57 57 58 58
28 27 27 28 28 28 28 27 25 27 28 29 29 29 30 31 31 32 33 33 33 33 34 35 35 36 37 38 40 41 43 43 44 46 47 48 49 50 50 50 51 52 52 52 53 54 55 57 57
29 28 29 29 30 29 28 29 26 27 27 28 29 29 30 31 32 32 33 34 34 34 34 35 35 36 37 39 42 43 43 44 45 46 46 47 48 48 48 49 49 50 51 52 53 53 54 55 56
30 30 30 31 31 31 29 30 29 27 28 29 30 30 31 31 32 33 33 34 35 35 35 35 35 37 38 39 41 43 43 43 44 45 46 47 47 47 47 48 50 51 52 51 52 53 54 55 55
31 31 31 32 32 32 31 31 30 29 29 30 31 31 32 33 34 34 34 35 35 36 36 37 37 38 38 40 42 43 43 44 44 45 45 46 46 47 48 49 50 51 52 52 52 54 54 54 54
31 32 32 33 33 33 32 32 30 30 31 31 31 32 33 34 34 35 36 36 36 36 36 38 38 39 40 41 42 43 44 45 45 45 45 46 47 48 47 48 50 50 51 52 52 53 53 54 55
33 33 32 34 35 35 34 33 31 31 31 31 32 33 33 33 34 35 35 35 36 36 37 38 39 40 41 41 42 43 44 45 45 46 47 47 46 46 47 48 49 50 50 51 51 52 52 53 54
33 33 32 34 35 36 36 33 32 31 31 32 33 33 33 33 34 35 34 34 35 36 37 38 39 40 41 43 43 44 45 46 46 46 47 48 47 46 47 47 49 50 51 52 52 52 52 52 52
34 34 34 35 36 36 37 34 33 32 32 33 33 33 33 34 35 35 35 35 36 37 38 39 40 41 42 42 43 44 44 45 45 46 47 47 47 46 47 47 49 49 50 51 51 51 51 51 50
36 35 35 36 36 36 37 35 33 33 33 33 34 34 34 35 35 35 36 36 37 38 38 39 40 41 42 43 44 45 44 44 45 45 45 45 46 46 46 46 46 47 48 50 51 50 49 49 48

GEFSSGP_500_meanwind_192.txt.gz
Wind_Speed
23 23 24 24 24 24 22 22 21 21 22 23 23 23 23 23 23 23 22 21 22 22 22 22 22 22 22 22 22 22 22 22 21 21 20 20 20 19 19 20 20 20 20 20 19 19 19 19 19
24 24 24 24 24 23 22 22 22 22 22 23 23 23 24 24 23 23 22 22 23 23 22 22 22 22 22 22 22 22 22 22 22 22 21 21 21 21 21 21 21 20 20 21 21 21 20 20 20
24 24 25 25 24 23 23 23 23 23 23 23 23 24 24 24 24 23 23 23 23 23 23 23 23 23 23 23 23 23 23 23 23 23 23 22 22 22 22 22 23 22 22 22 22 22 22 21 21
23 24 24 24 23 23 24 24 25 24 24 24 24 24 24 25 24 24 24 24 24 24 24 24 24 24 24 24 24 25 25 25 25 25 25 24 24 24 24 24 24 24 24 24 24 24 24 24 24
23 23 24 23 23 23 24 24 25 25 25 25 24 24 25 25 25 25 25 25 25 24 24 25 25 26 26 26 26 26 26 27 27 27 27 27 27 27 27 27 27 27 27 28 28 27 27 27 27
22 23 23 22 22 23 23 24 24 25 25 25 25 25 25 26 26 26 26 26 26 26 26 26 26 27 27 28 28 28 28 28 29 29 29 29 29 30 30 30 30 30 30 30 31 30 30 30 30
22 22 21 21 22 22 23 23 24 24 24 25 25 25 25 26 26 27 27 27 27 27 27 27 28 28 29 29 30 30 30 31 31 31 32 32 32 32 32 32 32 33 33 33 33 33 33 33 33
22 22 21 20 21 22 22 23 23 24 24 25 25 25 25 26 26 27 27 27 28 28 29 29 29 30 30 31 31 32 32 33 33 33 34 34 34 34 34 35 35 35 35 34 34 34 34 34 34
23 22 21 20 21 21 22 22 23 23 24 25 25 26 26 26 26 26 27 27 28 28 29 30 30 31 32 32 33 33 34 34 35 35 35 36 36 36 36 36 37 37 36 36 36 36 36 36 36
24 22 21 22 22 21 22 22 23 23 24 24 25 26 26 26 26 26 27 28 29 29 30 30 31 32 33 33 34 34 35 35 36 36 36 37 37 37 37 38 38 38 38 38 39 39 38 38 37
24 22 22 22 22 22 22 22 22 23 23 24 25 25 26 26 27 27 27 28 29 30 30 31 32 33 33 34 35 35 36 36 37 37 38 38 39 39 39 40 40 40 40 40 41 41 41 40 40
24 23 23 22 22 22 22 22 22 22 22 24 24 25 26 26 27 27 28 28 29 30 31 32 32 33 34 35 36 36 37 38 38 39 39 39 40 40 41 41 42 42 42 42 43 43 43 43 43
25 24 24 23 23 23 22 22 22 22 23 24 24 25 26 27 28 28 29 29 30 31 31 32 33 34 35 37 38 38 38 39 40 40 41 41 42 43 43 43 44 44 44 44 45 45 46 46 46
25 25 25 24 24 24 23 23 22 22 23 24 24 24 25 26 28 29 30 30 31 32 32 34 34 35 37 38 38 39 40 41 41 42 43 43 44 45 45 46 46 47 47 47 47 48 48 48 48
26 26 26 25 24 24 24 23 23 23 23 24 24 24 25 26 28 29 30 31 32 33 34 35 36 37 37 38 38 39 40 41 42 43 44 45 46 47 47 48 49 49 50 50 50 50 51 51 51
27 27 27 26 26 25 25 23 24 24 24 24 25 25 26 27 28 29 30 31 33 34 35 36 36 37 38 38 38 39 40 41 42 43 45 47 48 48 49 50 51 51 52 52 52 52 52 53 54
28 28 27 27 27 27 27 25 25 25 25 25 25 26 26 26 27 28 30 31 33 34 35 36 36 37 38 38 39 40 40 42 43 45 46 47 48 49 50 50 51 52 53 53 53 54 54 54 55
28 28 28 28 28 28 28 27 27 27 27 26 27 26 27 27 28 29 30 32 33 34 34 35 36 37 37 38 39 40 41 43 44 46 46 47 48 49 50 50 51 52 53 54 54 54 55 56 57
31 31 30 29 30 30 30 29 29 29 28 28 28 28 28 28 29 30 31 32 33 33 34 35 36 37 37 38 39 40 42 42 43 44 44 46 48 49 50 50 51 51 52 53 53 54 55 57 58
32 32 31 31 31 32 31 31 30 30 29 29 29 29 29 29 30 31 31 33 33 33 34 34 35 36 37 38 39 41 41 41 41 42 43 45 46 47 48 49 49 50 51 52 52 53 54 55 57
33 33 32 32 32 33 33 32 30 30 30 29 29 29 30 30 31 32 32 33 33 34 34 34 35 36 37 38 39 40 40 41 41 42 43 43 44 46 47 48 50 50 51 52 53 53 54 55 55
34 33 33 33 34 34 34 34 31 30 30 30 30 30 31 31 32 33 33 33 33 34 34 35 35 37 38 39 39 39 40 41 42 42 43 45 44 45 48 49 50 51 52 52 52 52 53 54 54
35 34 34 34 35 35 34 35 32 31 30 30 30 31 32 32 33 34 34 34 34 34 34 35 36 37 38 39 40 40 41 41 42 43 44 45 45 46 47 49 49 50 51 51 52 52 52 52 53
36 36 36 36 37 37 35 36 34 31 30 31 32 32 32 33 33 34 34 34 34 35 35 36 37 37 38 39 40 41 41 42 43 44 44 45 46 46 47 47 49 49 50 51 51 51 52 52 53
37 37 37 38 39 38 36 36 35 32 31 32 32 32 33 33 33 34 34 34 35 35 36 37 37 38 39 40 41 41 42 42 43 44 45 45 46 46 46 47 48 49 50 50 51 51 52 52 52
37 37 37 39 39 38 37 37 34 33 32 32 32 33 33 33 34 34 34 35 35 36 36 37 38 38 39 41 41 42 42 43 44 45 45 45 45 46 46 47 48 49 49 50 50 51 51 51 51
38 37 37 38 40 39 39 37 35 33 32 32 32 33 32 32 33 34 34 35 36 37 37 37 38 38 39 41 42 43 43 43 44 45 45 45 46 47 47 47 47 48 50 50 50 50 50 51 51
38 37 37 38 39 40 39 37 34 32 32 32 32 32 32 32 33 33 34 34 35 36 38 38 38 39 40 42 43 43 44 44 45 45 45 46 47 48 48 47 47 48 49 49 49 50 50 51 50
38 38 38 38 39 39 39 36 33 32 31 31 31 32 32 32 32 33 34 35 35 36 37 38 38 40 41 42 43 44 44 45 45 45 46 47 47 47 47 46 47 48 48 49 49 49 50 50 50
39 38 38 38 38 38 38 36 33 32 32 32 32 32 32 32 32 33 34 35 35 36 37 38 39 40 41 41 42 44 44 44 44 45 45 46 47 47 47 47 47 47 47 48 48 49 49 49 50

GEFSSGP_500_meanwind_198.txt.gz
Wind_Speed
27 27 27 27 28 27 26 24 23 24 24 24 23 23 23 23 23 23 23 22 22 22 22 22 21 21 21 21 21 21 21 21 21 21 21 20 20 19 19 19 19 19 19 18 18 18 18 18 17
27 27 28 28 28 27 25 24 24 24 24 24 23 23 23 23 23 23 23 22 23 23 23 22 22 22 22 22 22 22 22 22 22 22 22 22 21 21 21 20 20 20 20 20 19 19 19 19 18
27 27 28 29 28 26 25 25 25 25 25 25 24 24 23 23 23 23 23 23 23 23 23 23 23 22 23 22 22 22 22 22 23 23 23 23 23 22 22 22 22 22 21 21 21 20 20 20 19
27 27 28 28 27 25 25 25 26 26 26 25 25 25 24 24 24 23 23 23 23 23 23 23 23 23 23 23 23 23 23 23 23 23 24 24 24 24 24 24 23 23 23 23 23 23 23 22 22
27 27 27 27 26 25 25 25 25 26 26 26 26 26 25 25 24 24 24 24 24 23 23 23 23 23 24 24 24 24 24 24 24 25 25 25 25 25 25 25 25 25 25 25 25 26 26 25 25
27 27 27 25 25 25 26 26 26 26 26 26 26 26 26 26 26 25 25 25 24 24 24 24 24 24 25 25 25 25 25 26 26 26 26 26 26 26 27 27 27 27 27 27 28 28 27 28 28
26 26 26 25 25 25 26 26 26 26 26 26 26 26 26 27 27 26 26 26 26 26 26 26 26 26 26 26 26 27 27 27 27 27 28 28 28 28 28 28 29 29 29 29 29 29 29 29 30
26 27 26 26 25 25 25 26 26 26 26 26 26 26 26 26 27 26 26 26 26 27 27 27 27 27 27 27 27 27 28 28 28 29 29 30 30 30 30 30 31 31 31 31 31 31 31 31 31
27 27 26 25 26 25 26 26 26 26 26 26 26 26 26 26 26 26 26 26 27 27 27 27 27 27 28 28 28 28 29 29 30 30 31 31 31 32 32 32 33 33 33 33 33 33 33 33 33
28 27 26 26 26 26 26 26 26 26 26 26 26 26 26 26 26 27 27 26 26 26 26 27 27 27 27 28 28 29 30 31 31 32 32 32 33 33 34 34 34 34 35 35 36 36 35 35 36
28 27 26 27 27 27 27 27 26 26 26 26 26 26 25 26 26 27 26 26 26 26 26 26 27 27 28 28 29 30 31 31 32 32 33 34 34 35 35 35 36 36 37 37 37 38 38 38 38
30 29 28 28 28 28 28 27 27 26 26 26 26 26 26 26 26 26 26 26 26 26 27 27 28 29 29 30 30 30 31 31 32 33 34 35 35 36 36 37 37 38 38 39 39 40 41 41 41
31 30 29 29 29 29 29 28 27 26 27 27 27 26 26 26 26 26 26 26 26 27 27 28 28 29 30 30 31 31 32 32 33 34 35 36 37 38 39 39 40 40 41 41 42 42 42 42 42
31 30 30 30 30 29 29 29 28 27 28 27 27 26 26 26 26 26 27 27 28 28 29 29 29 30 30 31 31 32 33 34 35 35 36 37 38 40 41 41 41 42 42 43 43 44 44 44 44
32 32 31 31 30 29 29 29 27 28 28 27 26 26 26 27 27 27 28 28 29 29 30 30 30 31 31 32 32 32 32 33 34 35 37 38 39 40 41 42 42 43 43 43 44 45 46 46 47
33 33 32 31 31 30 30 28 28 28 28 27 27 26 26 27 27 27 28 28 29 29 30 30 31 32 32 32 32 33 33 34 35 36 37 39 40 41 42 42 43 44 45 45 45 46 47 47 48
34 33 32 32 31 31 31 29 29 29 28 27 27 27 27 27 28 28 28 28 28 29 30 31 31 32 33 33 33 34 35 35 36 37 38 39 40 42 43 44 45 45 46 47 48 48 48 49 49
34 34 33 33 32 32 32 30 30 30 29 28 28 28 28 28 28 29 28 28 29 30 30 31 32 33 33 34 35 35 36 36 37 38 38 39 41 42 44 45 46 47 48 49 49 49 49 50 50
36 35 34 33 33 33 33 32 31 31 30 29 29 29 29 29 29 29 29 29 30 30 31 32 32 33 33 34 35 36 36 37 38 39 39 40 41 43 44 46 47 47 48 49 49 49 49 49 49
36 36 35 34 34 34 34 33 33 32 32 31 31 30 30 30 30 30 30 30 30 31 32 32 33 33 33 34 35 36 37 37 38 39 40 40 41 42 43 45 45 46 46 47 48 49 49 49 51
36 36 35 35 35 35 35 35 34 33 33 32 32 31 31 31 31 31 31 31 31 31 32 33 33 33 34 35 35 36 37 38 39 39 39 40 41 42 42 43 43 44 46 46 47 49 50 50 51
37 36 35 35 36 35 36 36 34 33 33 33 32 32 32 32 32 31 31 31 31 32 32 33 34 34 35 35 36 36 37 38 38 39 40 41 41 41 42 43 43 44 45 46 47 48 50 51 51
36 36 36 36 36 37 36 37 34 33 32 32 32 32 32 32 32 32 32 32 32 33 33 34 35 35 36 36 37 37 38 38 39 40 40 40 41 41 42 43 43 44 45 45 46 47 49 51 52
37 37 37 37 37 38 36 37 35 33 31 31 32 33 32 32 32 32 32 33 33 33 34 34 35 35 36 37 37 38 38 39 40 40 40 40 41 41 42 43 44 45 46 46 46 47 49 50 51
37 37 37 38 39 39 36 37 35 32 31 31 32 32 32 33 33 33 33 33 33 33 34 34 35 35 36 37 38 38 39 40 40 40 40 41 41 42 43 43 45 45 45 46 47 48 49 50 52
37 37 37 38 38 38 37 37 34 32 31 31 32 32 33 33 33 33 33 33 33 33 34 34 35 35 36 37 37 38 39 40 40 41 41 41 42 43 44 45 45 45 46 47 47 48 50 51 53
37 38 37 37 38 38 38 37 34 32 31 31 31 32 32 33 33 33 33 33 33 33 34 34 35 36 36 36 37 38 39 40 41 42 42 43 43 43 44 45 46 47 47 48 48 49 50 51 52
38 37 36 37 37 38 38 36 33 32 31 31 31 31 31 32 33 32 32 32 33 33 34 35 36 35 36 36 37 39 40 41 42 42 42 43 44 44 45 45 46 47 47 47 48 49 50 51 52
37 37 37 38 38 37 37 35 32 31 31 31 31 31 31 32 32 32 32 33 33 33 34 35 35 36 36 37 38 39 41 42 42 43 44 44 45 45 46 46 46 46 46 47 48 49 51 52 52
37 37 37 38 38 38 36 35 32 32 32 32 31 31 31 31 32 32 32 32 33 33 33 34 35 36 37 38 39 39 40 42 42 43 43 43 44 44 45 45 45 45 46 47 48 49 50 50 50

GEFSSGP_500_meanwind_204.txt.gz
Wind_Speed
30 31 31 31 31 31 28 26 26 26 26 25 25 25 25 26 26 26 25 22 22 22 22 22 22 22 21 21 21 21 21 21 21 21 20 20 20 19 19 19 19 19 19 19 19 18 18 18 18
30 31 32 32 32 30 28 27 28 28 27 26 26 26 27 27 27 26 25 24 24 23 23 22 22 22 21 21 21 22 22 22 22 22 22 22 21 21 21 21 21 21 21 20 20 20 19 19 20
31 32 32 33 32 30 28 28 29 28 27 27 27 28 28 27 26 26 25 25 24 23 23 23 23 22 22 22 22 22 22 22 23 23 23 23 22 22 22 22 22 22 22 22 22 21 21 21 21
32 33 33 33 32 29 29 30 29 28 28 28 28 28 28 26 25 26 26 25 24 24 23 23 23 23 23 23 23 23 23 23 23 23 23 23 23 23 23 23 24 24 24 24 24 23 23 23 23
33 33 34 33 31 30 30 31 30 29 29 29 29 29 28 27 27 27 27 26 25 24 24 24 24 24 24 24 24 25 25 24 24 24 24 24 24 24 25 25 25 25 25 25 25 25 25 25 25
34 34 34 32 31 30 30 31 31 30 30 30 30 30 28 28 28 28 28 27 26 25 26 26 25 25 25 25 25 25 25 25 25 25 25 25 25 26 26 26 27 27 26 26 26 26 26 26 26
34 34 34 32 31 30 30 30 30 29 30 30 30 30 29 29 29 29 29 28 27 27 26 26 26 26 26 26 26 26 25 25 26 26 26 26 26 26 26 26 27 27 27 27 27 28 28 28 28
34 34 33 32 31 31 31 30 30 30 30 31 31 30 29 28 29 29 29 29 28 28 27 27 27 27 27 27 27 27 27 27 27 27 28 28 28 28 27 27 28 28 28 29 29 29 30 30 30
34 34 31 30 31 31 32 31 31 31 31 31 31 30 29 28 29 29 29 29 29 29 28 28 28 28 29 29 28 28 28 28 28 28 28 28 28 29 29 29 29 29 30 30 31 31 31 32 32
34 34 31 31 32 32 32 32 32 31 31 31 31 31 31 29 30 30 30 30 29 29 29 29 29 29 29 29 29 29 28 28 28 28 28 28 29 29 29 29 30 30 31 32 32 32 33 33 34
35 33 32 32 32 32 32 32 32 32 32 32 31 31 32 31 30 30 30 30 29 29 29 29 29 29 29 29 29 29 29 29 28 28 28 28 29 29 29 29 30 31 31 32 33 34 35 35 36
36 34 33 33 33 32 32 32 33 33 32 32 32 33 32 31 31 30 30 30 29 29 29 29 29 29 28 29 29 28 28 29 29 29 29 29 29 29 30 30 31 32 32 33 35 36 37 38 38
37 35 35 35 34 34 33 33 33 33 32 32 32 32 32 32 32 31 31 30 30 29 29 29 29 28 28 28 28 28 28 29 29 29 29 29 30 30 31 31 32 33 33 34 36 37 38 39 40
37 36 36 36 35 35 35 34 34 32 32 33 33 32 32 32 32 31 31 30 30 29 30 29 29 29 28 28 28 28 28 28 29 29 30 31 31 31 32 33 34 35 35 36 37 39 40 41 42
37 37 37 36 35 35 36 36 34 33 34 34 33 33 32 32 32 32 31 31 30 30 30 30 30 29 29 29 29 29 29 30 30 31 32 32 33 33 34 35 36 37 37 38 39 40 42 42 43
38 38 38 36 36 36 37 35 34 34 34 34 33 33 33 32 32 32 32 31 31 31 30 30 30 30 30 29 29 29 30 31 32 32 33 34 35 36 36 37 37 38 39 40 41 42 43 43 43
39 38 37 36 36 37 37 35 34 35 35 34 33 33 33 32 32 32 32 31 31 31 30 30 30 30 30 30 30 30 31 32 32 33 34 35 36 37 37 38 38 39 40 40 41 42 43 43 44
38 38 38 37 37 38 38 37 35 35 35 34 34 33 32 32 32 32 32 31 31 31 30 30 30 30 30 30 30 31 32 33 33 34 35 36 37 38 38 39 39 40 40 41 41 42 43 44 45
39 39 38 38 37 38 39 38 36 36 36 35 34 33 33 32 32 32 31 31 31 30 30 30 30 30 30 31 31 32 33 33 34 35 36 37 37 38 39 40 40 41 41 42 43 44 44 45 46
39 39 39 38 38 38 39 39 37 36 35 35 35 34 33 33 32 31 31 31 31 31 30 30 30 31 31 32 33 33 34 35 35 36 37 37 38 38 39 40 41 42 43 43 44 45 45 46 46
40 39 39 38 38 39 39 39 37 36 36 35 35 34 33 33 32 32 31 32 32 31 31 31 31 32 32 33 34 34 35 36 36 37 38 38 39 39 40 41 42 42 43 44 45 45 46 46 46
40 40 40 39 40 40 39 40 37 36 36 35 34 34 34 34 33 33 32 32 32 32 32 32 33 33 34 34 34 34 35 36 36 37 38 39 39 40 40 41 42 43 44 45 45 46 46 47 47
39 39 40 40 40 41 40 41 38 37 36 35 34 34 34 35 35 34 33 33 33 33 33 34 34 34 34 35 35 35 36 36 36 37 38 38 39 40 40 41 42 43 44 45 46 46 47 48 48
37 38 39 40 41 42 40 41 40 37 36 35 35 34 34 34 35 35 34 34 34 34 34 34 35 35 35 35 36 36 36 37 37 37 38 38 39 40 41 41 42 43 44 45 46 47 48 48 49
38 38 38 39 41 42 39 41 41 37 36 35 35 34 35 35 35 35 34 34 34 34 34 35 35 35 35 35 36 36 37 37 37 38 38 39 39 40 41 42 43 43 44 45 45 46 46 47 47
39 38 38 38 39 39 39 41 40 37 36 35 35 35 35 35 34 34 35 34 34 34 34 35 35 35 35 36 36 36 36 37 38 39 39 40 41 41 42 43 43 43 43 43 44 44 45 46 47
37 38 37 37 39 39 39 40 39 38 36 35 35 35 35 35 34 35 35 35 35 34 34 34 35 35 35 35 36 36 37 38 38 39 40 41 42 42 43 42 42 42 43 44 45 46 46 47 47
38 37 36 37 37 38 39 38 38 37 35 34 34 35 34 34 35 35 34 35 35 35 34 35 35 35 35 35 36 36 37 38 39 40 41 41 41 41 41 41 42 43 43 44 45 46 47 47 48
38 38 38 37 37 37 37 37 37 36 35 34 34 35 34 33 34 34 34 34 35 35 35 35 36 36 36 36 36 37 38 39 40 40 41 41 40 41 41 41 42 42 43 44 46 46 47 47 48
35 36 37 37 37 36 36 35 33 33 33 33 33 33 33 33 33 33 33 34 34 35 35 36 36 36 36 37 38 38 39 39 40 40 40 40 41 41 42 42 42 43 44 45 45 46 47 48 48

GEFSSGP_500_meanwind_210.txt.gz
Wind_Speed
34 34 34 34 34 34 31 28 28 28 28 28 27 27 26 26 25 24 23 21 20 20 20 20 20 20 19 19 19 18 18 18 18 18 19 19 19 19 19 19 19 19 20 19 19 19 19 19 18
35 35 35 35 35 34 31 29 29 29 29 29 29 28 27 27 25 24 23 23 22 22 22 22 22 21 21 21 20 20 19 19 19 19 20 20 21 21 21 20 21 21 21 21 21 21 21 20 20
35 36 36 36 36 33 31 30 30 30 30 31 30 29 28 27 26 25 25 24 23 23 23 23 22 22 22 22 21 21 21 21 21 21 21 21 21 22 22 22 22 22 22 22 22 22 22 22 22
36 36 38 38 36 33 32 31 32 31 31 31 31 30 29 28 27 26 26 25 24 23 24 23 23 23 23 23 23 23 23 23 22 22 22 22 22 22 23 23 23 24 24 24 24 24 24 24 24
37 38 38 38 36 33 32 33 33 33 32 32 32 31 30 29 28 27 26 25 25 24 24 24 24 23 23 23 23 23 23 23 24 24 24 24 24 24 24 24 24 25 25 25 26 26 26 25 25
38 38 39 37 35 34 34 34 34 34 33 33 32 32 30 29 28 27 26 26 25 25 25 25 25 25 24 25 25 24 25 25 25 25 25 25 25 25 25 25 25 26 26 27 27 27 27 27 27
39 39 38 37 35 34 34 35 36 35 34 33 33 32 31 30 29 29 28 27 26 26 26 25 25 25 25 25 25 25 25 25 25 26 26 25 25 25 26 26 26 27 27 27 28 28 28 28 28
39 39 39 37 36 34 35 36 37 36 35 34 33 32 31 31 30 30 29 28 27 27 27 26 26 25 25 26 26 26 26 26 27 27 27 26 26 26 26 27 27 27 27 27 28 28 28 28 29
39 40 38 36 36 35 36 37 37 36 35 34 34 33 32 31 31 30 30 29 28 28 27 27 27 27 26 26 26 27 27 27 27 27 27 27 27 27 27 27 27 27 28 28 28 28 28 29 29
39 38 35 35 36 35 36 36 36 35 35 34 33 33 32 31 31 30 30 29 29 29 28 28 28 28 27 27 27 27 27 27 28 28 28 28 28 28 28 28 28 29 28 28 28 28 29 29 29
38 36 35 36 36 35 36 36 35 35 35 34 33 33 33 32 31 31 30 30 30 29 29 29 29 29 29 28 28 28 28 28 28 28 28 28 29 29 29 29 29 29 29 29 29 29 29 30 30
38 36 36 36 37 36 36 36 36 35 34 34 34 34 33 32 31 31 31 31 30 29 29 29 30 29 29 29 28 28 28 28 28 28 28 29 29 29 29 30 30 30 30 30 30 30 30 31 32
39 36 37 37 38 37 37 36 36 35 34 34 34 34 33 32 32 32 32 31 30 30 30 30 30 29 29 29 29 29 29 29 29 29 29 30 30 30 30 30 30 30 31 31 31 32 32 33 33
38 38 38 38 38 38 37 37 36 34 35 35 34 33 33 33 32 32 32 31 31 30 30 30 30 30 30 29 29 30 29 29 29 29 29 29 29 30 30 30 30 30 31 32 33 33 34 34 35
39 39 39 38 38 38 39 38 36 35 36 35 34 34 34 33 33 32 32 32 32 31 31 31 30 30 30 30 30 30 29 29 29 29 29 29 29 29 29 30 30 31 32 32 33 34 35 36 36
40 41 41 39 39 39 40 38 36 36 36 35 35 35 34 33 33 32 32 32 32 31 31 31 31 31 31 30 30 30 30 30 30 30 30 30 30 30 30 31 31 32 33 34 35 36 36 36 37
41 41 40 39 39 39 40 38 37 37 37 36 36 35 34 34 33 32 32 32 32 32 32 31 31 31 31 31 31 31 31 31 31 31 31 31 31 31 31 32 32 33 34 35 36 37 37 37 38
40 40 40 39 39 40 40 39 38 38 37 37 36 36 35 34 33 33 32 32 32 32 32 32 32 32 31 31 31 32 32 32 32 32 32 31 31 32 32 32 33 34 35 35 36 37 38 38 39
40 41 41 40 40 40 40 40 38 38 38 36 36 36 35 34 34 33 33 32 32 32 32 31 31 31 31 31 31 32 32 32 32 32 32 32 32 32 33 34 34 35 36 36 37 38 38 39 40
40 40 40 40 40 41 41 40 39 38 37 37 36 36 35 35 34 34 33 32 32 31 31 31 31 31 31 31 32 32 33 33 33 33 33 33 33 34 35 35 36 36 37 37 38 39 39 40 42
39 39 39 40 40 41 41 41 39 38 38 38 37 36 36 35 35 34 34 33 32 32 31 31 31 31 31 31 32 33 33 33 33 34 34 34 35 35 36 37 37 37 38 38 39 40 41 42 44
38 38 38 39 41 41 41 41 40 39 38 38 37 36 36 36 35 35 34 33 32 32 32 31 31 31 31 31 32 32 33 33 33 34 35 35 36 36 37 38 38 38 39 40 41 41 43 44 45
37 36 37 38 40 41 41 42 40 39 38 37 37 36 36 36 35 34 34 33 32 31 31 31 31 31 31 32 32 33 33 33 34 35 35 36 37 37 38 39 39 39 40 41 41 42 42 44 44
36 35 36 37 39 41 40 41 40 38 37 37 37 36 36 36 35 34 34 34 33 32 32 32 31 31 32 32 33 33 33 34 35 36 36 37 37 38 39 40 40 40 41 41 41 42 43 44 45
37 36 36 37 39 41 39 41 39 37 37 36 36 36 36 36 36 35 35 34 34 33 33 33 32 32 32 33 33 34 34 35 35 36 37 37 37 38 39 40 40 41 41 41 41 42 43 44 44
37 37 37 37 38 38 38 39 38 36 36 36 36 36 36 36 36 36 35 34 34 34 34 33 33 33 33 33 34 34 35 36 36 36 37 37 38 39 39 40 41 41 41 41 41 42 44 44 44
37 37 37 37 38 37 38 38 37 35 35 35 35 35 35 35 35 35 35 35 34 34 34 34 34 34 34 34 35 35 36 36 36 36 37 37 38 39 40 40 40 40 40 41 41 43 44 44 45
36 35 36 37 37 37 37 37 37 35 33 34 34 34 34 35 35 35 35 35 34 34 35 35 35 35 35 35 35 36 36 36 37 37 37 38 38 39 39 39 39 40 40 41 42 43 44 45 46
36 36 36 36 36 36 36 36 35 34 33 33 33 33 33 33 34 34 34 34 34 34 34 34 35 35 35 35 36 36 36 37 37 37 38 38 38 39 39 39 40 40 41 42 43 44 45 45 45
34 35 36 37 37 36 36 36 33 33 33 33 33 33 33 33 33 33 34 34 34 34 34 34 35 35 35 35 36 36 37 37 37 38 38 39 39 40 40 40 41 41 42 42 43 44 45 45 45

GEFSSGP_500_meanwind_216.txt.gz
Wind_Speed
36 36 36 37 37 37 34 31 29 28 28 28 29 29 28 27 26 26 25 23 22 21 21 20 20 19 19 18 18 17 16 15 15 15 14 14 14 14 14 15 15 15 16 16 17 17 17 17 17
37 37 38 38 39 37 34 31 30 29 29 29 30 29 29 28 27 26 25 24 23 23 22 22 22 21 21 20 19 19 18 18 17 17 17 17 16 16 17 17 17 17 18 18 18 19 19 19 19
37 38 39 40 39 37 34 32 31 31 31 30 30 30 30 29 28 27 26 26 25 24 24 23 23 22 21 21 20 20 20 19 19 19 19 18 19 19 19 19 19 19 19 19 20 20 21 21 21
38 39 40 40 39 36 35 33 32 32 32 32 32 31 30 30 29 28 28 27 26 25 24 23 23 23 22 22 21 21 21 21 20 20 20 20 20 20 20 20 20 21 21 21 21 22 22 23 23
40 41 41 40 37 36 36 35 34 35 35 34 33 32 31 30 30 29 29 28 27 26 25 24 24 24 24 23 22 22 22 22 22 22 22 21 21 21 21 21 21 22 22 22 22 23 23 24 24
41 41 41 39 37 36 36 36 36 36 36 36 35 34 32 31 31 30 29 29 28 27 26 25 25 25 25 24 24 24 23 23 23 23 23 23 22 22 22 22 23 23 23 23 23 23 24 24 24
42 42 41 39 37 37 36 37 37 37 38 37 36 36 33 32 31 31 30 30 29 29 28 27 27 26 26 25 25 25 24 24 24 24 24 24 24 24 24 24 24 24 24 24 24 24 24 25 25
42 43 42 40 38 37 36 37 38 38 38 37 37 36 34 33 33 32 32 31 31 30 29 28 28 27 26 26 26 25 25 25 25 25 25 25 25 25 25 25 25 25 25 25 25 25 25 25 25
43 43 42 39 38 37 37 38 39 39 38 38 37 37 36 35 34 34 33 32 32 31 30 29 28 28 27 27 26 26 26 26 26 26 26 26 26 26 26 26 26 25 25 25 25 25 25 26 26
43 43 39 38 38 38 38 39 39 39 39 38 38 37 37 36 36 35 34 34 33 32 32 31 30 29 29 28 27 27 27 26 26 26 27 26 26 26 26 27 26 26 26 26 26 26 27 27 27
43 40 38 38 38 39 39 39 40 40 39 39 38 38 38 37 37 36 36 35 34 34 33 32 31 30 30 29 29 28 28 27 27 27 27 27 27 27 27 27 27 28 28 28 28 28 28 28 28
43 40 39 39 39 39 39 40 40 40 38 39 39 39 38 38 37 36 36 36 35 34 33 32 32 31 31 30 30 30 29 28 28 28 28 28 28 28 28 28 29 29 29 30 30 30 30 30 30
42 40 41 41 41 41 40 40 40 39 38 39 39 38 38 37 36 36 36 36 35 34 33 33 33 33 32 31 31 31 30 29 29 29 29 29 29 29 29 29 29 30 30 30 30 31 31 31 31
41 41 41 42 42 42 41 41 41 38 38 39 38 38 37 36 36 36 35 35 34 34 34 34 34 33 33 32 32 32 31 31 31 31 30 30 30 30 30 30 30 30 30 31 31 31 31 31 31
42 42 42 42 42 41 42 42 40 38 39 39 39 38 38 37 36 35 35 35 35 34 34 34 34 33 33 32 32 32 32 32 32 32 32 32 31 31 31 31 31 31 31 31 32 32 32 32 32
42 43 43 41 42 42 43 41 38 39 40 39 39 39 39 38 37 36 35 35 35 35 34 34 34 33 33 33 33 33 33 33 33 33 33 33 32 32 32 32 32 32 32 32 33 33 33 33 34
43 43 41 40 41 41 42 40 39 40 40 39 40 40 40 39 37 36 36 36 35 35 34 34 34 34 33 33 33 33 33 33 33 33 33 33 32 32 33 33 32 32 33 33 33 33 34 34 35
42 41 40 40 40 41 41 40 39 40 40 40 40 40 39 39 38 38 37 36 35 35 35 34 34 34 34 33 33 33 33 33 33 33 33 33 33 33 33 33 33 33 34 34 34 34 35 35 36
41 41 40 39 39 41 41 40 39 40 41 40 40 39 39 39 39 38 37 37 36 35 34 34 34 34 34 34 34 34 33 33 33 33 33 33 33 33 33 33 34 34 34 35 35 35 36 37 37
41 41 40 40 40 41 41 40 40 40 40 41 40 40 39 39 39 38 38 37 36 35 35 35 34 34 34 34 34 34 33 33 33 33 33 33 33 33 34 34 35 35 35 35 36 36 37 38 39
41 41 40 39 40 41 41 41 40 40 40 41 41 40 40 39 39 39 38 38 37 36 36 36 35 34 34 34 34 34 33 33 33 33 33 33 34 34 35 35 35 36 36 36 37 37 38 39 40
40 40 41 40 40 40 41 42 40 40 40 40 40 39 39 39 39 39 39 38 37 37 36 36 36 35 34 34 34 34 33 33 33 33 33 34 35 35 35 35 36 36 37 37 38 39 40 40 41
39 40 40 41 41 41 41 42 40 40 40 39 39 39 39 39 39 39 39 38 38 38 37 36 36 35 35 34 33 33 33 33 33 34 34 34 35 35 36 36 36 37 37 38 39 40 41 41 42
39 39 39 40 41 43 41 41 40 39 38 38 38 39 39 39 39 39 39 39 38 38 38 37 36 35 35 34 34 33 33 33 34 34 34 35 35 36 36 36 37 37 38 38 39 40 41 41 41
38 39 38 40 42 43 40 41 39 37 36 37 38 38 38 38 38 38 38 38 38 38 37 36 36 35 35 35 34 33 33 33 34 34 35 36 36 36 36 36 37 38 38 39 39 40 40 40 40
37 38 38 39 41 41 41 41 39 38 37 36 36 38 38 38 37 37 37 37 38 38 37 36 35 35 35 35 34 34 33 34 34 35 36 36 36 36 36 37 37 38 38 39 39 39 39 40 41
35 36 36 37 40 40 41 41 39 38 37 36 35 36 37 37 37 37 37 37 37 38 37 36 36 36 35 35 35 34 34 34 35 36 36 36 36 36 36 37 37 38 38 38 38 39 40 41 42
34 34 35 36 38 39 40 39 38 37 36 36 36 35 36 37 37 37 37 37 37 37 37 36 36 36 35 35 35 35 35 35 35 35 35 35 36 36 36 36 37 37 37 38 39 40 41 42 43
34 35 35 35 36 37 38 38 36 35 35 35 35 35 35 36 37 37 37 37 37 37 37 37 36 36 36 36 36 36 36 35 35 34 34 34 35 35 36 37 37 38 38 39 40 41 42 42 43
31 34 35 35 35 35 36 35 34 34 33 33 34 34 34 35 36 36 36 37 37 37 37 37 37 37 37 37 36 36 35 35 35 34 34 34 35 35 36 36 37 38 38 39 40 40 41 43 43

GEFSSGP_500_meanwind_222.txt.gz
Wind_Speed
37 38 38 38 39 39 37 34 32 31 30 30 29 29 28 27 26 25 24 22 22 21 20 20 19 18 18 17 16 16 16 15 15 14 14 14 14 14 14 13 13 13 13 14 14 14 14 15 15
38 39 39 40 41 40 37 34 33 32 32 31 31 31 30 29 27 26 25 24 23 23 22 21 20 20 19 18 18 17 17 17 17 16 16 16 15 15 15 15 15 15 15 15 16 16 16 17 17
39 40 41 41 42 40 37 35 34 33 33 33 33 33 32 30 29 28 27 26 25 24 23 23 22 21 21 20 19 19 19 18 18 18 18 17 17 17 17 17 17 17 17 17 17 17 17 18 18
39 41 42 43 41 39 38 36 35 35 35 34 34 34 33 32 30 29 28 27 26 26 25 24 24 23 22 21 21 20 20 19 19 19 19 19 19 19 19 19 19 19 19 19 19 19 19 19 19
41 42 43 43 40 38 38 37 36 37 36 36 35 35 34 33 32 31 30 29 28 27 27 26 25 24 23 23 22 22 21 21 21 21 20 20 20 21 21 21 20 20 20 20 20 20 21 21 21
42 43 43 42 40 39 39 38 38 38 38 37 37 36 34 34 33 32 31 30 30 29 28 27 26 26 25 25 24 23 23 23 22 22 22 22 22 22 22 22 22 22 22 21 21 22 22 22 22
43 43 43 42 41 40 40 39 39 39 39 39 38 37 36 35 34 33 32 32 31 30 29 28 28 27 27 26 25 25 25 24 24 24 24 23 23 23 23 23 23 22 22 22 22 22 22 22 22
42 43 43 42 41 40 40 40 40 39 39 39 40 39 37 36 35 34 33 33 32 31 31 30 29 29 28 27 27 26 26 26 25 25 25 25 24 24 24 24 23 23 23 23 23 23 23 23 23
43 44 43 41 41 41 41 41 41 40 40 40 40 39 38 37 36 35 34 34 34 33 32 31 31 30 30 29 28 28 27 27 27 26 26 26 25 25 25 25 25 25 24 24 24 24 25 25 25
44 44 42 41 41 41 41 41 41 41 40 40 40 39 39 38 37 36 35 35 34 34 33 33 32 32 31 31 30 29 29 28 28 28 27 27 27 26 26 26 26 26 26 26 26 26 26 26 26
43 42 41 41 41 42 42 42 41 41 41 40 40 39 39 38 38 37 37 36 36 35 35 34 34 33 32 32 31 31 30 29 29 28 28 28 27 27 27 27 27 27 27 27 28 27 27 27 27
41 41 41 41 41 42 42 42 41 41 40 40 40 40 39 39 38 38 37 37 37 37 36 35 35 34 33 33 32 31 31 30 30 29 29 29 29 28 28 28 28 28 28 29 29 28 28 29 29
42 41 41 42 41 42 43 42 42 41 40 41 41 40 40 39 39 39 38 38 38 37 37 36 36 35 34 33 33 32 31 31 31 30 30 30 30 29 29 29 29 29 29 29 30 30 30 30 31
41 41 42 42 42 41 42 42 42 41 41 41 41 41 40 40 39 39 38 38 38 38 38 38 37 37 36 35 34 33 32 32 31 31 31 31 31 31 31 31 31 31 31 31 31 31 32 32 32
41 41 42 42 42 42 42 42 41 41 41 41 41 41 41 40 39 39 39 39 39 39 39 38 38 38 37 36 35 34 34 33 33 32 32 32 32 32 32 32 32 32 32 32 33 33 33 33 33
40 41 42 42 42 42 43 42 41 41 41 41 41 41 41 40 39 39 39 39 39 39 39 39 38 38 37 37 36 35 34 34 34 34 33 33 33 33 33 33 33 33 33 33 34 34 33 34 34
41 41 41 41 42 42 43 41 41 41 41 41 41 41 41 40 40 39 39 39 39 39 39 38 38 37 37 36 36 35 35 34 34 34 34 34 34 33 34 34 34 34 34 34 34 34 34 34 34
40 41 41 41 41 42 43 41 41 41 41 41 41 41 41 40 40 40 40 40 39 39 39 38 38 37 37 37 36 36 35 34 34 34 34 34 33 33 33 33 33 33 34 34 34 34 34 34 35
39 40 40 41 42 43 43 41 41 41 41 41 41 41 41 40 41 41 40 40 40 39 39 39 38 37 37 36 36 36 35 34 34 34 33 33 33 33 34 33 33 33 33 33 33 34 34 34 34
39 40 40 40 42 43 43 42 41 42 42 41 41 41 41 41 41 41 41 40 40 39 39 39 38 38 37 37 36 35 35 34 34 33 32 33 33 33 33 33 33 33 33 33 33 34 34 35 35
40 40 40 40 41 42 43 43 42 41 42 42 42 42 41 40 40 40 41 41 40 39 39 39 38 38 38 37 36 35 35 34 34 33 33 32 33 33 33 33 32 33 33 33 34 35 35 35 36
38 39 39 40 41 42 42 43 43 42 41 41 41 41 41 40 40 40 40 40 40 40 39 39 39 39 38 38 37 35 35 34 34 33 32 32 32 32 32 32 32 33 33 34 35 36 36 37 37
36 37 37 39 41 42 42 43 42 42 41 40 40 40 40 40 39 39 39 39 40 40 40 39 39 38 38 37 36 35 35 34 34 33 32 32 31 31 32 32 32 33 34 34 35 35 36 36 36
32 34 35 37 40 42 42 43 42 41 39 39 39 39 39 39 39 39 39 39 39 39 39 39 39 38 38 37 36 35 35 34 34 33 33 33 32 32 32 32 32 32 32 33 33 34 34 35 35
30 31 32 35 38 41 41 42 42 40 39 38 38 38 38 39 39 38 39 39 39 39 39 39 39 38 38 38 37 36 35 35 34 33 33 33 33 32 32 31 31 32 32 32 33 34 35 35 36
29 31 32 33 36 38 40 41 40 39 38 37 37 38 38 38 38 38 38 38 39 38 38 38 39 38 37 38 37 36 35 35 34 34 33 33 32 32 32 32 33 33 33 34 34 35 36 37 37
28 29 31 33 34 35 37 39 39 38 37 37 37 37 37 37 38 38 39 38 38 38 38 38 38 38 37 37 38 37 36 35 35 34 33 33 33 33 33 33 33 34 34 34 35 36 37 37 38
29 28 28 31 32 34 35 36 37 36 36 36 36 36 36 36 37 38 38 38 38 38 37 37 38 38 38 37 38 38 37 36 35 34 34 34 34 34 34 34 34 35 35 35 36 37 37 38 39
29 30 29 31 32 33 34 35 35 35 35 35 35 36 36 36 36 37 38 38 38 38 38 38 38 38 38 38 37 37 37 36 36 35 35 35 35 35 35 35 36 36 36 36 37 38 38 39 40
29 29 29 30 31 33 34 34 33 33 34 35 35 35 35 35 35 36 37 37 38 38 38 38 37 37 38 38 38 37 37 37 36 35 36 35 35 36 36 36 36 37 37 37 38 39 40 40 41

GEFSSGP_500_meanwind_228.txt.gz
Wind_Speed
37 38 38 39 40 40 38 35 33 32 32 31 30 30 29 29 28 29 27 24 22 22 21 20 19 18 18 17 16 15 15 14 14 13 13 13 13 12 12 12 12 12 12 12 12 13 13 13 13
38 39 40 40 41 41 38 36 35 34 33 33 33 32 32 31 31 31 28 25 24 24 23 22 21 21 20 19 18 17 17 16 15 15 14 14 14 14 13 13 14 14 14 14 14 14 14 15 15
39 40 41 42 42 40 37 37 37 36 36 35 35 34 34 33 32 32 30 28 27 26 25 24 23 22 21 20 20 19 18 17 17 16 16 16 15 15 15 15 15 16 16 16 16 16 16 16 17
40 41 43 44 42 38 37 37 38 38 38 37 37 37 36 34 33 32 31 31 29 28 27 26 25 24 23 22 21 21 20 19 18 18 17 17 17 17 17 17 17 17 17 17 17 17 18 18 18
41 43 44 44 41 38 38 38 39 39 39 39 39 38 37 36 35 35 34 32 31 30 29 28 27 25 24 23 23 22 21 20 19 19 18 18 18 18 18 18 18 18 19 19 19 19 19 19 19
42 44 45 44 41 39 39 40 40 39 40 40 40 40 38 38 37 37 36 34 33 32 31 30 28 27 26 25 24 23 22 22 21 20 20 20 19 19 19 20 20 20 20 20 20 20 20 20 20
42 43 44 43 41 41 40 41 41 40 40 41 41 41 39 39 38 38 37 36 35 33 33 32 30 29 28 27 26 25 24 23 23 22 22 22 21 21 21 21 21 21 21 21 21 21 21 21 22
42 44 44 43 42 41 40 42 41 40 41 41 43 42 40 39 39 39 38 38 36 35 34 33 32 31 30 29 28 27 26 25 25 24 24 23 23 23 23 23 22 22 22 22 22 22 22 23 23
44 45 44 42 42 41 41 42 41 41 43 43 43 42 41 40 39 39 39 38 37 37 36 35 33 32 32 31 30 29 28 27 26 26 26 25 25 25 24 24 23 23 23 23 23 23 24 24 24
44 45 42 41 42 42 43 42 40 41 42 43 43 42 41 40 40 40 39 39 38 38 37 36 35 34 33 32 31 30 30 29 28 28 27 27 26 26 26 25 25 25 24 24 24 24 25 25 26
43 43 41 42 43 44 44 43 41 41 43 43 42 41 41 40 40 40 40 40 39 39 37 37 36 35 34 33 33 32 31 30 30 29 29 28 28 27 27 26 26 26 26 26 26 26 27 27 28
42 42 42 43 43 45 44 43 42 41 42 42 42 43 42 41 40 40 40 40 40 40 38 38 37 36 35 35 34 33 32 32 31 31 30 29 29 28 28 27 27 27 27 27 27 27 28 28 29
42 41 43 43 43 43 43 43 43 43 42 42 41 42 42 41 41 41 41 41 41 40 39 38 38 37 36 35 35 34 33 33 32 31 31 30 30 29 29 29 29 28 29 29 29 29 29 30 30
41 41 43 43 43 43 43 42 43 42 42 42 41 42 41 41 41 42 42 41 40 40 40 39 38 38 37 36 35 35 34 33 33 32 32 31 31 30 30 30 30 30 30 30 30 30 30 30 31
41 41 43 43 43 43 44 43 43 42 43 42 42 42 42 41 41 42 42 41 40 40 40 39 39 38 38 37 36 36 35 34 34 33 32 32 32 31 31 31 31 31 31 30 30 31 31 31 31
41 42 42 42 43 43 44 43 42 42 42 42 42 42 42 42 42 42 41 41 41 40 39 39 39 39 38 37 37 36 36 35 35 34 34 33 33 32 32 32 31 31 31 31 31 31 31 31 31
39 40 40 40 43 44 45 43 42 41 41 41 42 42 42 42 42 41 41 41 41 41 41 40 39 39 39 38 37 36 36 35 35 35 35 34 34 33 33 32 32 32 31 31 32 32 32 31 31
38 38 39 40 41 43 44 43 42 42 42 42 42 42 43 43 42 41 41 41 41 41 41 41 40 40 39 38 38 37 36 35 35 35 35 35 36 35 34 33 33 32 32 32 31 31 31 31 31
37 38 38 38 40 42 42 42 43 43 43 42 43 44 43 43 43 42 41 41 41 41 41 41 41 40 39 39 38 37 36 36 36 36 35 36 35 35 34 34 33 33 32 31 31 31 31 31 31
37 36 36 37 38 40 41 42 43 44 43 43 43 44 43 43 43 42 41 41 41 41 41 41 41 41 40 39 38 38 37 37 36 35 35 35 35 35 34 34 33 32 32 31 31 31 31 32 31
36 35 35 36 36 38 40 42 44 44 43 43 43 44 43 43 42 42 42 41 40 40 40 41 41 41 40 39 39 38 37 37 36 35 35 35 35 35 34 33 32 32 32 32 32 32 31 32 32
32 33 33 36 36 38 40 41 41 42 42 42 43 43 43 43 43 42 42 41 41 40 40 41 40 40 39 39 39 38 38 37 36 36 35 35 35 34 33 33 33 32 32 32 31 31 32 32 33
32 31 32 33 35 37 39 41 40 42 43 42 42 42 43 43 43 42 42 41 42 41 41 40 41 40 40 39 39 39 38 37 36 36 36 35 35 34 33 33 33 32 32 32 32 32 33 33 34
30 30 30 32 33 36 38 39 40 41 42 42 42 42 43 43 43 43 43 42 42 42 42 40 41 41 40 40 39 39 39 38 37 36 36 36 35 35 34 34 33 33 33 33 33 33 33 34 35
28 28 28 29 31 34 35 38 39 39 40 40 41 42 41 41 42 42 42 42 42 42 42 41 40 40 40 40 40 39 39 39 37 36 37 37 36 36 35 35 34 34 34 34 34 34 34 35 36
27 28 28 27 29 31 33 36 37 37 38 39 40 40 41 40 40 41 41 42 41 41 41 41 41 41 41 40 39 38 38 38 39 38 37 37 37 36 36 36 35 34 34 34 35 35 35 36 36
28 29 29 28 28 29 31 34 35 36 37 38 39 39 40 40 40 40 40 41 41 41 41 40 40 40 40 39 39 38 38 39 39 38 38 37 37 37 36 35 35 35 35 35 36 36 36 37 37
27 28 29 29 28 29 31 33 34 34 35 36 38 39 38 38 39 39 40 40 40 40 40 40 40 39 40 39 39 38 39 39 39 39 38 38 37 37 36 36 35 35 35 35 36 36 37 37 37
27 27 27 27 27 28 30 31 32 33 33 34 36 37 37 37 37 38 39 39 39 39 39 40 39 39 39 39 39 39 39 39 40 40 39 38 37 36 36 36 36 36 36 36 37 37 37 37 38
26 27 27 27 26 27 28 29 29 30 32 33 35 36 37 37 37 37 37 38 39 39 39 39 40 39 39 39 39 39 39 39 40 40 39 39 38 37 37 37 37 37 36 37 38 38 38 38 38

GEFSSGP_500_meanwind_234.txt.gz
Wind_Speed
38 37 38 39 41 42 39 35 33 31 31 31 30 30 28 27 27 26 24 23 22 20 19 18 17 16 16 15 14 14 13 13 12 12 12 11 11 10 10 10 10 10 10 10 11 11 11 11 12
39 39 40 41 43 42 39 36 35 33 32 32 32 32 30 29 29 27 26 25 24 23 21 21 20 19 18 17 16 16 16 15 15 14 13 13 12 12 12 11 11 12 12 12 12 12 12 13 13
39 40 41 43 44 42 38 36 36 35 35 34 34 33 33 32 31 30 28 27 26 25 24 23 22 21 20 19 19 18 18 17 16 16 15 14 14 13 13 13 13 13 13 13 13 13 14 14 14
40 41 43 44 43 40 37 37 37 37 37 37 36 36 35 34 33 32 31 30 29 27 27 26 25 24 22 21 21 20 19 19 18 17 16 16 15 15 15 15 15 15 15 15 15 15 15 16 16
41 42 44 44 42 39 38 38 38 38 38 38 38 38 37 36 35 34 33 32 31 30 29 28 27 26 25 23 23 22 21 20 20 19 18 17 17 17 16 16 16 16 16 16 16 17 17 17 17
43 44 45 44 41 38 38 39 39 39 39 39 39 40 39 38 37 35 35 34 34 33 32 31 30 28 27 26 25 24 23 22 21 20 20 19 19 18 18 18 17 17 17 17 18 18 18 18 18
43 44 44 43 41 39 38 39 40 40 40 40 40 40 40 40 38 37 36 35 35 34 33 33 32 31 30 28 27 25 25 24 23 22 22 21 20 20 20 19 19 19 19 19 19 19 19 19 19
43 44 44 43 41 38 38 40 41 41 41 41 41 42 41 40 39 39 38 37 36 35 35 34 33 32 31 30 28 27 26 26 25 24 23 23 22 22 22 22 21 21 21 21 21 20 21 21 21
43 45 44 42 40 38 39 41 42 42 42 42 41 41 42 41 40 40 40 39 37 36 36 36 35 34 33 32 30 29 28 28 27 26 25 25 24 24 24 23 23 23 22 22 22 22 22 22 22
44 45 43 41 40 39 39 41 42 42 42 43 42 40 41 41 41 41 40 39 38 38 37 37 36 35 34 33 32 31 30 30 29 28 27 27 26 26 25 25 24 24 24 24 23 23 24 23 24
44 44 42 41 40 40 40 41 42 43 43 42 42 41 41 41 41 41 40 40 39 38 38 37 37 36 35 34 34 32 32 31 30 30 29 28 28 27 27 26 26 26 25 25 25 25 25 25 25
44 43 43 41 41 41 40 41 43 44 42 42 42 41 40 41 41 41 41 41 41 40 39 38 38 37 36 35 34 34 33 33 32 31 31 30 29 29 29 28 28 27 27 27 27 27 26 26 26
43 43 43 42 43 42 41 41 43 44 44 44 43 42 41 41 41 42 42 42 41 41 40 39 38 38 37 36 35 35 34 34 33 32 32 31 31 31 30 30 29 29 29 29 29 28 28 28 28
42 43 43 43 43 43 42 42 43 43 44 44 44 42 42 43 42 42 42 41 41 41 41 40 39 39 38 37 36 36 35 35 34 33 33 33 32 32 31 31 30 30 30 30 29 29 29 29 29
42 43 43 43 43 43 43 42 42 43 44 44 44 43 42 42 42 42 41 41 41 41 41 41 40 39 38 37 37 37 37 36 35 34 34 34 33 33 32 31 31 31 31 31 30 30 31 31 31
41 43 44 43 42 42 44 43 42 44 45 45 44 44 43 42 41 41 41 41 41 41 41 41 41 40 39 38 38 38 38 36 36 35 35 34 34 33 33 32 32 32 32 32 32 32 32 32 32
40 41 41 41 42 43 44 43 42 44 44 44 44 45 45 43 42 41 41 41 41 41 41 42 42 41 40 39 38 38 38 37 36 36 36 35 35 34 34 33 33 33 33 33 33 32 32 32 32
37 38 39 40 40 41 42 43 43 44 44 44 43 44 44 43 42 41 41 41 41 41 41 41 41 41 41 40 39 39 39 38 37 37 37 36 35 35 34 34 34 33 34 33 33 33 33 33 32
36 36 37 38 39 40 41 40 42 42 43 43 44 44 44 43 42 42 42 41 41 41 41 41 41 41 41 41 40 40 39 39 39 38 37 37 36 35 35 35 35 34 34 33 33 33 33 33 33
36 36 34 35 36 39 40 39 40 41 42 42 44 45 45 43 42 42 42 41 41 41 41 40 41 41 41 40 40 40 39 39 39 38 38 37 37 36 36 36 35 35 34 34 33 33 33 34 33
34 34 33 33 34 36 38 40 40 40 42 42 44 44 44 44 43 42 42 42 41 40 40 40 41 40 40 40 40 40 39 39 39 39 38 38 37 36 37 36 35 34 34 34 33 33 33 33 33
33 33 32 33 34 35 37 39 39 39 40 41 42 43 42 42 43 42 42 42 41 41 40 40 40 40 40 41 41 40 39 39 39 39 39 39 38 37 36 36 36 35 34 33 33 33 33 33 33
31 32 31 31 32 34 36 38 38 39 39 39 40 41 41 41 41 41 41 41 41 41 41 40 40 40 40 40 41 41 39 38 39 39 39 38 37 37 37 36 36 36 35 34 33 33 33 33 33
28 30 31 30 31 32 32 35 36 38 37 37 38 39 40 41 41 41 41 41 41 41 40 40 40 39 39 39 40 41 40 38 38 39 38 38 37 37 37 37 37 36 36 35 34 34 34 34 34
25 26 28 29 31 31 30 33 34 34 35 35 37 38 39 40 41 41 41 41 40 40 40 40 40 40 39 39 39 40 40 40 39 39 39 38 38 38 37 36 36 36 36 35 35 35 34 34 34
24 25 27 28 29 30 30 32 33 32 33 34 36 38 39 39 40 41 41 40 40 39 40 40 41 41 40 40 40 40 40 40 40 39 39 38 39 38 37 36 36 35 36 36 36 35 34 35 35
25 25 26 26 27 28 28 29 31 31 32 33 35 37 38 39 40 40 40 40 39 39 40 40 40 41 40 40 40 40 40 39 38 38 38 38 38 37 37 35 35 36 36 36 36 35 35 35 35
24 25 26 26 26 27 28 28 29 30 31 32 33 35 37 38 39 41 41 40 40 40 40 41 41 41 41 40 40 40 40 40 39 38 37 37 37 37 37 35 35 36 36 35 35 35 35 35 35
24 26 27 26 26 26 28 27 26 27 28 30 31 32 34 35 37 39 39 40 40 40 41 41 41 41 42 41 40 39 40 40 38 38 38 38 37 37 37 36 35 35 36 36 35 35 35 35 36
24 25 26 26 26 26 27 26 25 26 27 28 30 31 32 33 34 36 37 38 39 40 41 41 41 41 41 41 40 40 40 40 39 38 38 37 37 37 37 36 35 34 35 35 35 35 36 36 36

GEFSSGP_500_meanwind_240.txt.gz
Wind_Speed
36 37 38 39 40 42 40 36 34 33 33 31 30 29 27 26 25 25 23 23 22 21 20 19 18 17 15 15 14 13 13 12 11 10 9 9 8 8 8 7 7 7 8 8 9 9 9 10 10
38 38 39 41 42 42 40 36 34 34 34 34 32 31 29 28 27 26 25 24 24 23 22 21 20 19 17 16 16 15 14 13 12 12 11 10 10 10 9 9 9 9 9 10 10 11 11 11 11
39 39 41 43 43 42 38 35 35 35 36 35 34 33 31 29 29 28 27 26 26 25 24 23 22 21 20 19 18 16 15 15 14 13 13 12 12 12 11 11 11 11 11 11 12 12 12 12 12
40 41 43 45 44 41 38 36 36 37 37 37 36 35 33 31 30 30 29 28 28 27 27 26 25 24 23 22 20 19 18 17 16 15 15 14 14 13 13 13 13 13 13 13 12 13 13 13 13
41 43 45 46 44 41 38 37 38 38 38 37 37 36 35 33 32 32 31 31 30 29 29 28 27 27 26 25 23 22 21 19 18 17 17 16 16 15 15 15 15 14 14 14 14 14 14 15 15
43 44 45 45 44 40 38 37 38 39 40 39 39 38 37 35 34 33 33 33 32 31 31 30 30 29 28 27 26 25 23 22 20 19 19 18 18 17 17 17 16 16 16 16 16 16 16 16 17
43 45 45 44 43 40 38 38 39 40 40 40 40 39 38 37 36 35 35 35 34 33 33 32 31 31 30 29 28 27 26 24 23 22 21 20 19 19 19 18 18 18 18 18 18 18 18 18 19
43 45 45 44 43 40 37 38 40 41 41 41 42 41 39 38 37 37 36 36 35 34 34 34 33 32 32 31 30 29 28 27 25 24 23 22 22 21 20 20 20 19 19 19 19 19 20 20 20
44 46 45 43 42 40 39 40 41 42 41 42 43 42 40 39 39 38 38 37 37 36 35 35 35 34 34 32 31 30 29 28 27 26 25 24 24 23 22 22 21 21 21 21 21 21 21 21 22
45 47 44 43 42 41 40 41 42 42 42 42 43 42 41 40 39 39 39 39 38 37 37 37 36 36 35 35 33 32 31 30 29 28 27 26 25 25 24 23 23 23 22 22 22 22 23 23 23
45 46 45 44 43 42 42 42 42 43 43 42 42 42 41 40 40 39 39 40 39 39 38 38 37 37 36 36 35 33 32 32 31 30 29 28 27 27 26 25 24 25 24 24 24 24 24 24 25
45 45 45 46 45 44 43 43 44 44 43 42 42 42 42 40 40 40 39 40 40 40 39 39 38 38 38 37 36 35 34 33 32 31 31 30 29 28 28 27 26 26 26 26 25 26 26 26 26
44 45 46 46 46 45 44 44 44 44 43 43 42 43 42 41 40 40 40 40 40 40 40 39 39 39 39 38 37 37 36 35 34 33 32 31 30 30 29 29 28 27 28 27 27 27 27 27 27
42 44 46 46 46 46 45 44 45 43 43 44 43 43 42 42 42 41 40 40 41 41 41 40 39 39 39 39 39 38 37 36 35 35 34 33 32 31 31 30 30 29 29 29 29 29 29 29 29
40 42 45 46 47 46 45 46 45 43 44 45 44 44 43 43 42 41 40 40 41 42 42 42 41 40 40 40 39 39 38 37 36 36 36 35 33 32 32 31 31 31 31 31 30 30 30 30 30
38 41 43 44 45 46 46 46 44 45 44 44 45 45 44 43 43 42 41 41 42 42 42 43 43 42 41 40 40 40 40 39 38 37 37 36 35 34 33 33 33 32 32 32 31 31 31 31 31
37 39 41 41 43 44 45 45 44 45 45 45 45 45 44 43 43 43 42 42 42 42 42 42 42 42 41 41 40 40 40 40 39 38 38 37 36 35 35 34 34 33 33 33 32 32 32 32 32
35 37 38 39 41 43 43 43 44 45 45 45 46 45 44 43 42 42 42 41 42 42 42 42 42 43 43 42 41 41 41 41 41 40 39 38 37 36 36 35 34 34 33 33 33 33 33 34 34
34 35 36 37 38 41 42 42 42 44 44 45 45 44 43 42 43 42 42 42 42 42 41 41 42 42 42 43 42 42 41 41 41 41 40 39 39 38 37 37 36 36 35 35 34 35 34 35 35
32 33 34 35 36 39 42 42 42 42 43 44 43 44 43 42 42 42 43 42 42 43 43 41 42 42 42 42 42 42 42 42 43 43 42 40 40 40 39 38 37 37 37 36 36 36 36 36 36
30 32 32 33 34 37 40 42 42 43 43 43 42 43 43 44 43 43 43 43 42 42 42 42 41 41 42 42 42 41 41 43 43 42 41 40 40 40 39 38 38 38 38 37 36 36 37 37 37
28 30 31 32 33 34 37 40 41 41 42 42 42 42 42 43 43 43 43 42 42 42 42 42 41 41 42 42 43 43 41 42 42 41 40 40 40 40 39 39 38 38 37 37 37 37 37 37 37
25 27 29 30 32 33 34 37 39 39 39 40 41 41 41 41 42 42 42 42 42 42 42 42 42 42 41 41 42 43 42 41 41 40 41 40 39 40 39 39 38 37 37 36 37 37 37 37 37
24 24 26 29 31 32 31 33 36 36 36 37 39 41 40 40 41 41 41 42 42 42 42 43 43 43 43 42 42 43 42 42 41 40 40 40 39 39 39 39 39 38 37 36 36 37 37 38 38
23 23 24 27 29 30 29 31 33 33 34 35 37 38 39 40 41 41 41 41 43 43 42 42 42 42 43 43 42 43 43 43 42 42 40 39 38 38 38 39 39 39 38 37 36 36 36 38 38
21 22 24 26 27 28 28 30 31 32 33 33 35 37 38 39 40 41 41 41 42 42 42 42 43 42 43 42 42 42 42 42 42 42 41 39 38 39 40 39 38 38 39 38 37 36 37 38 38
19 22 24 26 27 27 27 27 28 30 31 32 33 35 37 39 40 40 40 40 41 42 42 43 43 44 43 42 42 42 42 42 42 41 41 40 39 39 39 40 40 39 38 37 36 36 37 37 37
20 21 23 25 26 27 26 26 26 27 28 29 32 34 35 37 39 40 39 39 40 41 42 43 44 44 44 44 43 42 42 42 42 42 42 42 41 39 39 39 39 39 38 38 37 36 37 36 36
20 21 23 24 25 26 26 25 26 28 27 28 29 32 34 35 37 38 38 39 39 41 42 43 43 43 43 44 43 43 43 43 43 43 43 42 41 40 38 38 38 37 37 37 37 37 36 36 37
20 22 23 23 24 25 26 25 25 27 28 28 28 30 32 34 35 37 37 39 40 40 41 42 43 43 42 42 42 43 43 43 44 43 42 42 41 40 39 38 37 38 37 36 37 37 37 37 37

GEFSSGP_500_meanwind_246.txt.gz
Wind_Speed
34 34 35 36 38 39 37 34 32 31 32 31 31 30 28 28 26 26 24 23 22 21 20 20 20 19 19 18 18 17 16 16 15 14 13 12 11 10 10 9 9 8 8 7 7 7 7 7 7
35 35 37 38 40 41 37 34 33 32 33 33 33 32 31 30 29 28 25 24 23 23 22 21 21 20 20 20 19 19 19 18 17 16 15 14 13 12 11 11 10 10 9 9 8 8 8 8 8
36 37 38 40 42 41 37 35 34 34 35 35 34 34 33 32 31 30 28 26 25 25 23 23 22 22 21 21 21 20 20 20 19 18 17 16 15 14 14 13 12 12 11 10 10 9 9 9 9
36 37 40 41 42 40 39 37 36 36 37 37 36 36 35 33 32 31 30 29 28 26 25 25 24 24 23 22 22 22 21 21 20 20 19 18 17 16 15 14 14 13 12 12 11 11 11 11 11
37 39 40 42 42 41 40 39 38 38 38 38 38 38 36 35 34 34 33 31 30 29 27 27 26 25 25 24 24 23 22 22 21 21 20 20 19 18 17 16 15 14 14 13 13 13 12 12 12
38 39 41 42 41 41 41 39 39 39 39 39 40 39 38 37 36 36 35 33 32 31 30 28 28 27 27 26 26 25 25 24 23 23 22 22 21 20 19 18 17 16 16 15 15 15 14 14 14
38 39 40 40 39 39 40 39 39 39 39 40 41 41 40 39 38 37 37 36 34 33 32 30 30 29 29 28 28 27 27 26 25 25 25 24 23 22 21 20 19 18 17 17 17 17 16 16 16
38 39 39 40 40 38 38 39 40 40 40 41 42 42 41 40 40 39 39 38 36 35 34 32 31 31 30 30 30 29 29 28 27 27 27 26 25 25 24 22 21 20 19 18 18 18 18 18 18
37 39 39 39 40 40 39 40 40 41 41 41 42 41 41 42 41 41 41 40 39 37 36 34 33 32 32 32 32 32 31 30 29 29 29 28 27 27 25 24 23 21 21 20 20 20 20 19 20
36 38 38 37 40 41 41 41 41 42 42 42 42 41 42 42 42 42 41 41 40 39 38 36 35 34 34 34 34 33 32 32 31 30 30 30 29 28 27 26 25 23 22 22 22 21 21 21 21
36 38 38 39 41 42 42 42 42 43 44 42 42 42 42 42 42 42 42 42 41 40 39 39 37 36 36 36 36 35 34 34 33 32 31 31 31 30 29 28 27 26 24 23 23 23 23 22 22
36 37 39 39 40 42 42 42 43 43 43 43 43 42 43 43 43 43 43 43 42 42 41 40 38 38 37 37 37 36 36 35 35 34 33 32 32 31 30 29 29 28 26 25 25 24 24 24 24
34 36 37 38 39 41 42 42 43 43 43 44 43 43 43 43 43 43 43 44 44 43 42 41 40 39 39 39 38 38 37 36 36 34 34 34 33 32 32 31 30 30 28 28 26 26 26 26 26
35 36 37 38 39 41 41 41 42 42 44 44 44 43 44 44 44 43 43 44 44 44 43 42 41 40 39 39 39 39 39 38 37 36 35 35 35 34 33 32 31 31 30 30 29 27 27 27 27
33 35 37 38 39 42 42 41 42 42 44 45 45 44 45 45 45 44 44 44 44 44 43 42 41 41 41 41 40 39 39 39 39 38 36 36 36 35 34 34 33 33 32 31 30 29 28 28 28
31 34 35 37 38 40 42 42 41 41 42 45 46 45 46 46 46 46 45 44 44 44 43 43 42 42 41 41 40 40 40 39 39 39 38 38 37 36 36 35 35 34 34 33 32 31 30 29 29
31 33 34 35 37 40 42 42 41 40 41 42 45 47 46 47 47 46 45 45 44 44 43 43 42 41 41 41 40 40 40 39 39 39 38 38 38 38 37 37 36 36 35 34 33 32 32 31 30
28 30 32 32 33 37 40 41 41 40 41 42 43 46 47 47 47 47 46 45 44 44 43 43 43 42 41 40 40 40 39 39 39 39 39 39 39 38 38 37 36 36 36 35 34 34 33 32 31
27 28 30 31 32 34 36 38 39 40 41 41 43 45 46 47 48 48 47 46 44 44 44 44 44 43 42 41 40 40 40 40 40 39 39 40 40 40 39 38 38 38 37 37 36 35 34 33 32
26 27 28 30 31 32 34 35 36 38 40 40 42 44 45 47 48 48 48 46 45 45 44 43 42 43 43 42 41 41 41 41 41 40 41 41 41 41 40 40 38 39 38 38 37 35 35 34 34
24 24 26 27 28 30 32 33 34 36 38 39 40 43 44 46 48 48 48 47 46 45 45 43 43 43 44 44 43 43 43 42 42 42 42 42 41 41 41 40 39 38 38 37 37 36 35 35 35
22 22 23 24 26 26 28 30 31 34 36 38 38 40 42 43 46 48 48 48 47 46 45 44 44 43 43 44 43 43 42 42 43 42 42 42 42 42 42 42 41 39 38 37 37 36 36 36 35
20 20 21 22 24 25 26 28 29 31 33 35 36 37 39 41 44 46 47 47 46 45 45 44 45 43 43 44 42 43 43 43 44 44 43 42 42 42 42 42 42 41 39 38 37 37 37 36 36
19 19 20 21 22 24 24 26 27 28 30 32 33 35 37 38 41 44 45 46 46 46 45 46 44 44 43 43 42 41 42 43 45 46 45 44 43 43 41 41 41 41 40 39 38 37 37 37 37
17 18 18 19 19 21 22 25 25 26 28 30 31 33 35 36 39 41 43 44 45 44 43 45 44 44 43 43 43 42 42 43 44 45 46 44 44 43 42 41 40 40 39 39 39 38 38 37 38
16 16 16 17 18 19 20 22 24 25 26 28 29 31 34 35 37 39 41 43 43 43 44 44 43 43 43 44 43 43 43 43 43 44 44 45 45 44 43 43 42 41 40 39 38 38 38 38 38
15 15 16 17 18 18 20 20 22 23 24 26 27 29 32 34 36 37 40 41 41 41 42 43 42 42 42 44 45 44 43 43 43 43 44 45 45 44 43 43 42 41 40 40 38 39 39 40 40
15 16 17 17 18 17 18 19 20 22 23 24 27 29 30 32 33 36 38 40 41 42 41 43 43 43 42 43 43 42 43 44 44 44 43 44 44 43 43 42 42 41 41 40 40 38 38 40 40
15 15 16 17 18 18 18 17 18 20 21 23 25 27 29 31 33 34 36 38 40 40 41 43 43 43 43 43 43 42 42 42 43 43 44 44 45 44 42 41 41 41 41 41 42 41 40 39 39
15 15 15 17 17 18 19 17 16 19 21 23 24 25 26 29 31 33 34 36 38 38 39 40 42 43 44 43 43 43 43 42 42 43 44 45 45 45 43 41 41 41 41 42 42 41 40 40 39

GEFSSGP_500_meanwind_252.txt.gz
Wind_Speed
30 31 32 33 35 36 35 32 30 30 30 29 30 30 30 30 29 29 28 27 25 24 23 22 21 20 20 20 19 18 17 16 15 15 14 13 13 12 12 11 11 10 9 9 9 8 8 8 7
31 33 34 35 37 37 34 31 32 32 32 31 31 31 31 31 31 30 30 29 27 26 25 24 23 22 22 21 21 20 19 18 17 16 16 15 15 14 14 13 12 12 11 11 10 10 9 9 9
32 34 35 37 38 37 34 33 33 34 33 33 32 32 32 33 32 31 31 31 30 28 27 27 26 25 24 23 22 21 21 20 19 19 18 17 17 16 16 15 14 14 13 12 12 12 11 11 10
34 36 37 38 38 35 35 35 35 35 34 34 34 34 35 34 33 33 34 33 32 30 29 29 28 27 26 25 25 24 23 22 21 21 20 19 19 18 17 17 16 15 15 14 14 13 13 12 12
35 36 38 39 39 37 35 36 36 37 36 35 36 36 36 35 35 35 35 35 34 32 32 31 30 29 28 27 26 26 25 24 23 22 22 21 20 20 20 19 18 17 17 16 16 15 14 14 14
35 37 38 39 38 37 37 37 38 38 38 37 38 39 37 37 37 37 37 37 35 34 33 33 32 31 30 29 29 28 27 26 25 25 24 23 22 22 21 20 20 19 18 18 18 17 17 16 16
35 37 38 38 38 38 37 37 39 39 39 39 40 41 39 39 39 39 39 38 37 36 35 35 34 33 32 31 30 30 29 28 27 27 26 25 24 24 23 23 22 22 21 20 20 19 18 18 17
35 36 37 37 37 37 37 39 40 40 39 39 41 42 41 41 41 40 40 40 38 38 37 36 36 34 34 33 32 32 31 30 29 29 28 26 26 26 26 26 25 24 23 22 22 21 20 20 19
35 36 37 37 38 37 38 40 41 40 40 40 42 43 42 43 43 42 42 42 40 39 38 37 37 36 36 35 34 34 33 32 31 31 30 29 28 28 28 28 27 26 25 25 24 23 21 21 21
35 36 37 37 38 37 38 41 42 42 41 41 42 43 44 44 44 44 43 43 42 41 40 39 39 38 37 37 36 36 34 34 33 32 31 30 30 30 29 29 29 28 28 27 25 25 24 22 22
35 35 36 37 38 39 39 40 42 42 41 42 42 43 43 44 44 44 45 44 43 42 42 41 41 41 39 39 38 37 36 35 35 34 32 31 31 31 30 30 30 29 29 28 27 27 26 25 23
32 32 34 36 38 40 41 41 42 42 41 42 43 44 44 44 44 45 45 45 44 43 43 43 42 42 41 40 40 39 38 37 36 35 33 33 32 32 31 31 31 30 30 29 28 28 27 26 25
32 33 33 35 36 39 41 43 42 41 41 42 43 44 45 44 44 45 46 46 45 44 44 44 44 43 43 41 41 40 39 39 37 36 35 34 33 33 33 32 32 32 31 30 30 29 29 28 27
30 32 34 34 36 37 40 41 42 41 41 43 44 44 44 44 44 45 47 47 46 46 45 45 45 44 44 43 42 41 40 39 38 37 37 36 35 35 34 34 33 33 32 31 31 30 30 29 28
30 32 34 35 35 35 37 40 41 41 41 42 43 44 44 45 45 46 47 48 47 47 46 45 45 45 44 43 43 41 40 39 38 38 38 37 36 35 35 35 35 34 33 33 32 31 31 30 29
30 31 32 33 35 35 37 39 39 41 42 42 42 43 43 44 45 46 47 47 48 47 47 46 46 46 45 43 43 42 40 40 39 39 39 38 37 36 35 36 36 35 34 34 33 33 32 31 30
28 30 30 32 34 35 37 38 37 39 42 42 42 42 43 43 44 45 46 47 48 48 47 48 47 47 45 44 44 43 42 41 40 39 39 38 37 37 36 36 36 35 35 34 34 33 32 32 32
28 29 29 29 31 34 35 36 36 37 40 41 42 42 43 42 43 43 45 47 48 48 48 49 49 48 46 45 44 43 43 42 41 40 39 38 37 37 36 36 36 36 36 35 35 34 34 33 33
27 27 28 27 29 31 32 33 34 34 37 38 39 40 41 42 42 43 44 46 48 48 48 48 48 48 48 47 45 44 44 43 42 41 41 39 38 38 37 36 36 36 36 36 36 35 35 35 34
26 27 28 27 28 30 29 29 30 30 32 34 36 38 39 40 41 41 43 45 47 49 48 48 48 48 48 47 46 45 44 44 43 43 42 41 39 38 37 37 37 37 37 37 36 36 35 35 35
25 25 25 26 27 27 28 27 27 29 31 31 32 34 36 38 40 41 42 44 46 48 49 49 49 49 48 47 46 45 45 44 44 43 42 41 41 39 38 38 38 39 38 36 37 38 37 37 36
25 24 23 24 25 25 25 27 25 27 28 29 31 33 33 35 38 40 40 43 46 48 49 49 49 48 48 48 47 46 45 45 44 44 42 42 41 40 40 39 39 40 39 38 37 37 38 37 36
23 23 22 23 23 24 24 26 24 25 26 27 28 30 32 34 36 38 40 41 44 47 48 48 48 48 48 48 48 47 46 46 46 45 44 43 42 42 41 40 39 39 40 39 39 38 37 37 37
22 21 21 21 22 23 22 24 22 23 23 24 25 28 30 33 35 37 38 40 42 45 47 48 48 49 49 47 47 49 48 47 46 46 45 45 44 43 43 42 40 39 40 40 39 40 38 37 36
21 20 20 21 21 21 19 20 20 21 23 23 24 26 27 30 32 35 36 38 40 43 45 46 47 48 49 49 48 49 48 47 47 46 46 46 45 45 44 44 43 42 41 40 40 40 39 38 37
22 21 20 20 21 20 18 18 19 21 22 23 24 25 26 28 30 33 35 37 39 42 44 45 45 46 48 49 49 49 48 46 45 46 46 46 46 45 45 45 44 43 43 43 41 40 39 38 38
22 20 20 21 21 21 20 20 21 21 21 22 23 25 26 27 28 31 32 35 37 41 42 43 43 44 45 47 48 49 47 46 45 44 44 45 46 45 44 44 44 43 43 43 41 40 40 39 38
22 21 21 21 20 21 21 21 21 21 21 22 23 24 26 27 28 29 30 32 35 38 40 39 41 43 43 44 47 48 48 47 44 44 44 44 44 45 45 45 44 43 43 42 42 41 40 39 39
22 21 21 21 21 20 21 21 21 22 22 22 23 24 24 24 27 29 30 31 33 36 38 38 41 42 43 43 46 47 47 47 46 45 44 44 43 43 43 45 45 44 43 43 43 42 42 40 39
23 22 20 21 20 20 20 20 20 21 23 23 23 23 23 23 25 27 30 31 31 33 34 36 37 39 42 43 44 46 45 45 46 44 43 44 44 44 44 43 43 43 43 43 42 42 42 41 40

GEFSSGP_500_meanwind_258.txt.gz
Wind_Speed
28 29 29 30 31 32 31 28 27 27 27 27 28 28 28 27 26 25 24 24 23 23 22 22 21 20 19 19 19 19 18 17 16 15 15 14 13 13 13 13 13 13 12 12 11 11 11 10 10
29 30 31 32 34 33 31 29 28 28 29 29 30 30 30 28 27 27 26 25 25 25 24 24 23 22 21 21 20 20 20 20 18 17 16 16 15 15 15 15 15 15 14 13 13 13 13 12 12
31 32 32 34 35 34 31 30 30 29 30 31 31 32 32 30 29 28 28 27 27 27 26 26 25 25 24 23 22 22 22 22 21 20 19 18 17 17 16 16 17 16 16 15 15 15 14 14 14
32 33 34 35 35 34 33 31 31 32 32 32 33 33 33 32 31 30 29 29 29 29 29 28 27 27 26 25 25 24 24 23 23 22 21 20 19 19 18 18 18 18 17 17 17 16 16 15 15
34 35 36 37 36 34 34 33 34 35 34 35 35 34 34 34 34 32 32 32 31 31 30 30 30 29 29 28 27 27 26 26 25 24 23 22 22 21 20 20 20 20 19 19 19 18 18 17 17
35 36 38 37 37 35 35 35 36 37 37 37 37 37 36 35 35 34 34 34 34 33 32 33 32 32 31 31 30 29 29 28 28 27 26 25 24 23 22 21 22 22 22 21 20 20 20 19 19
36 37 39 38 38 37 37 37 38 39 39 39 39 39 38 37 37 36 36 36 36 36 35 35 34 34 33 32 32 31 31 31 30 29 28 27 27 25 24 24 23 23 23 23 23 22 22 21 21
35 37 38 38 39 38 38 39 40 41 41 40 40 41 39 39 39 39 38 38 38 38 37 37 36 36 35 34 34 33 33 33 32 31 31 30 29 27 27 26 26 26 25 25 24 24 23 23 23
32 35 36 37 38 37 38 39 40 41 42 42 42 42 41 41 41 41 40 39 40 40 40 39 38 38 38 37 36 36 35 35 34 34 33 32 31 30 29 28 28 27 27 26 26 26 26 25 25
31 33 33 34 36 36 36 38 40 42 43 43 43 43 43 42 42 42 41 41 41 42 41 41 40 40 39 39 38 38 37 37 36 36 35 34 33 32 32 31 30 29 28 28 28 28 28 27 27
29 31 31 32 34 35 35 36 39 41 43 44 44 44 44 44 44 43 42 42 43 43 43 43 42 41 40 40 40 39 39 39 38 38 37 36 35 34 34 33 32 31 30 29 29 29 29 29 28
28 28 29 30 33 34 35 37 39 40 41 43 44 44 45 46 45 45 44 43 43 43 44 44 43 42 42 41 41 41 41 40 40 39 38 37 36 35 36 35 34 33 32 31 30 30 29 29 29
28 27 26 28 32 34 35 37 38 40 41 41 42 43 44 45 46 45 44 44 43 44 44 45 45 44 43 42 41 41 42 43 42 42 40 39 38 37 37 36 35 34 33 32 31 30 30 30 29
27 27 27 28 30 33 34 35 37 39 39 39 40 41 42 44 45 44 44 44 43 44 44 44 45 45 44 43 41 42 41 42 43 42 41 41 40 38 37 37 36 35 34 33 32 32 31 30 30
27 27 28 28 30 32 33 34 35 37 38 39 39 41 42 43 44 44 45 44 44 44 45 45 45 45 45 44 43 43 42 43 44 43 42 40 40 38 38 38 38 37 36 35 34 33 32 32 32
28 28 27 27 28 29 31 30 32 35 36 38 40 41 41 42 43 43 45 45 45 45 44 45 45 45 45 44 43 44 43 43 43 43 43 42 40 40 39 38 37 36 35 34 34 33 33 32 32
28 28 26 26 25 27 28 28 28 31 33 35 38 40 41 41 43 43 44 44 45 45 45 45 45 46 46 45 43 43 43 43 42 43 44 43 42 41 40 38 37 36 35 35 35 34 34 34 33
26 26 25 25 24 24 25 26 26 26 28 31 34 36 39 41 42 43 43 44 45 45 44 45 46 46 46 46 44 45 45 44 42 42 44 44 43 42 42 39 37 37 36 36 35 35 35 34 33
25 25 25 25 24 24 24 25 25 25 26 28 32 34 37 40 40 43 43 43 44 45 44 44 45 46 46 47 46 44 45 45 44 43 43 44 44 42 42 41 38 37 38 37 36 35 35 34 34
24 24 24 24 24 24 24 24 25 27 28 29 30 31 33 37 39 40 42 41 42 43 43 44 44 45 45 46 47 47 45 45 45 44 43 43 44 43 43 42 41 39 37 37 37 37 36 35 35
23 23 23 23 23 22 23 24 24 25 26 26 28 29 30 33 37 38 40 40 41 42 42 43 44 45 46 45 47 48 48 46 46 45 44 45 45 44 43 42 42 41 39 38 37 37 37 36 37
22 22 23 22 22 22 23 24 21 21 23 24 26 27 28 30 33 36 38 40 41 42 42 43 43 44 45 46 46 47 47 47 46 45 44 45 46 46 45 44 42 42 41 38 37 38 38 37 37
21 21 22 22 22 23 23 23 20 22 22 23 24 25 25 26 29 32 35 37 39 41 42 43 43 43 44 45 45 45 45 46 45 45 45 46 46 46 45 45 44 42 41 40 39 37 37 37 37
20 20 21 22 22 22 22 23 22 22 22 22 22 23 23 25 27 29 32 35 37 40 41 42 43 44 45 45 45 46 45 45 46 46 46 46 47 47 45 45 45 44 42 41 40 39 39 39 38
19 20 21 21 21 21 22 23 23 22 22 22 23 23 24 24 25 27 29 32 34 37 40 41 42 43 45 45 45 46 46 47 46 47 46 46 47 47 46 47 46 46 44 43 42 40 40 39 38
20 20 20 20 21 21 22 22 21 21 21 22 23 22 23 24 24 27 28 30 32 34 37 39 41 42 44 44 44 45 46 48 47 47 46 45 45 46 46 46 46 46 45 43 42 41 40 40 38
20 20 20 20 22 22 23 23 21 21 22 23 23 24 24 24 24 26 28 29 30 32 34 37 38 39 41 43 44 44 45 46 47 47 46 46 45 46 45 45 47 47 46 44 42 40 40 40 39
19 19 19 19 21 22 22 21 20 21 22 23 24 24 25 24 25 26 27 29 30 32 33 35 36 37 39 41 43 44 44 44 45 47 46 45 45 46 46 45 45 46 45 45 43 42 41 40 40
19 19 19 19 20 21 21 21 19 21 22 23 24 25 24 25 26 25 26 28 30 32 33 33 34 36 37 39 40 42 43 43 44 44 45 45 45 44 45 43 44 44 44 43 44 44 43 42 42
19 20 20 20 21 21 22 21 20 22 23 23 24 25 24 25 26 26 27 27 28 30 32 33 33 34 36 37 38 40 42 42 42 43 44 44 45 43 44 45 43 43 43 43 43 43 42 43 42

GEFSSGP_500_meanwind_264.txt.gz
Wind_Speed
28 29 30 30 30 31 31 30 28 27 27 26 26 27 27 27 26 26 24 23 22 21 20 20 19 19 18 18 18 18 17 17 16 15 14 14 13 12 12 12 12 11 11 11 11 10 10 11 11
29 30 31 32 33 33 32 30 30 29 29 28 29 28 28 28 28 27 26 24 24 23 22 22 21 21 21 20 20 19 18 18 18 17 16 16 15 14 14 14 14 13 13 13 12 12 12 12 13
30 31 33 34 34 34 32 31 31 31 31 31 31 30 30 29 29 28 27 26 26 26 25 24 24 23 23 22 22 22 21 20 19 19 19 18 17 17 16 16 16 15 15 15 15 14 14 14 14
30 32 33 35 36 34 34 33 32 32 33 33 33 32 31 30 30 30 29 28 28 28 27 27 26 25 25 25 24 24 24 22 22 21 21 20 20 19 18 18 18 18 17 17 16 16 16 16 16
31 33 34 36 36 35 35 35 34 34 34 34 35 34 33 32 32 31 31 31 30 30 30 30 29 28 27 27 27 27 26 25 24 24 23 23 22 21 21 20 20 20 19 19 18 18 18 18 18
32 34 36 36 36 35 36 36 36 36 35 35 36 36 35 34 34 33 34 33 33 33 32 32 32 31 30 29 29 29 28 27 26 26 26 25 24 23 23 22 22 21 21 21 21 20 19 19 19
32 34 36 36 36 36 36 37 38 38 37 37 37 37 37 36 36 35 35 35 35 35 35 34 34 33 32 32 31 31 30 30 29 28 28 28 27 26 25 25 24 24 23 23 23 22 22 21 22
33 34 36 35 36 37 37 38 38 38 38 38 39 39 38 37 37 37 38 37 37 37 37 37 36 36 35 34 33 33 33 32 31 31 31 31 30 29 27 27 26 26 26 25 25 24 24 24 23
34 35 35 34 36 36 36 38 39 39 40 40 40 41 40 38 39 39 39 39 39 39 39 38 38 38 37 37 36 36 35 35 34 33 33 33 32 31 30 29 29 28 28 28 27 27 26 26 26
33 34 34 35 35 36 37 38 39 40 41 41 42 42 41 40 41 41 41 40 40 41 41 41 41 40 39 39 39 38 38 37 36 36 35 35 35 33 32 31 31 31 30 30 30 29 29 28 28
32 33 33 34 34 35 37 37 39 41 41 42 42 42 41 42 42 42 41 42 41 42 43 43 43 42 41 41 41 41 41 40 39 38 37 37 37 36 34 34 34 33 32 32 32 32 31 31 30
32 32 33 34 34 33 35 37 38 40 40 41 42 42 42 42 42 42 42 42 43 43 43 44 43 43 42 42 42 42 42 42 41 40 40 39 39 38 37 35 34 34 34 34 34 34 34 33 32
31 31 31 32 33 34 34 36 38 38 38 39 39 40 40 40 41 43 42 42 43 44 43 43 43 43 42 42 42 42 43 43 42 41 41 41 41 40 39 37 36 36 36 36 36 36 36 35 35
30 30 30 31 32 34 35 34 35 34 35 36 37 37 38 39 39 40 41 42 42 43 43 43 43 44 43 43 43 43 43 43 43 43 41 41 42 41 40 40 39 38 37 38 38 38 37 37 36
29 30 30 30 31 32 33 33 32 32 33 35 35 35 35 36 38 39 40 40 41 42 43 43 43 44 44 44 43 43 44 44 44 44 44 42 42 42 42 42 41 40 39 39 39 39 38 37 36
29 31 31 30 30 30 31 31 30 31 33 33 33 33 34 35 37 38 39 40 41 43 42 43 43 43 44 45 45 44 45 45 45 45 44 43 43 42 43 43 42 41 40 40 39 39 38 36 35
29 31 31 30 29 29 30 30 30 30 31 32 32 33 34 34 35 37 38 39 41 42 42 42 43 44 44 46 46 45 45 45 45 46 45 45 45 43 43 43 42 42 41 40 39 38 38 37 35
28 29 29 29 29 28 28 28 28 28 29 31 32 32 33 33 33 36 38 40 41 41 43 43 44 45 45 46 46 45 46 46 47 46 46 46 45 44 43 43 43 43 42 40 39 38 38 37 36
28 29 29 28 28 27 26 26 25 27 28 28 29 29 31 31 33 34 35 38 41 42 43 44 44 45 45 44 45 46 46 46 46 46 46 46 46 44 43 44 44 43 41 41 39 37 38 38 37
27 28 28 27 27 27 26 24 24 25 26 26 27 27 28 30 31 33 35 37 41 43 43 43 44 45 45 45 45 45 47 46 46 46 46 46 46 45 44 44 45 43 42 42 40 39 38 37 37
26 27 26 26 26 26 26 24 23 23 24 24 25 27 27 28 29 31 33 35 38 40 42 42 44 44 45 45 44 45 46 47 46 48 47 46 45 45 44 44 44 43 42 41 41 40 38 37 38
25 25 26 25 25 25 25 26 23 23 23 24 24 26 26 28 30 32 33 33 35 38 40 42 43 43 43 44 43 44 45 46 46 47 48 47 46 45 44 44 44 43 43 42 42 41 40 39 39
25 24 25 25 26 25 25 26 24 24 24 25 25 26 26 28 30 32 33 33 34 36 38 40 41 42 43 44 45 45 45 45 46 46 48 47 47 46 46 45 44 44 44 43 43 42 42 41 40
24 24 25 26 26 25 24 26 25 25 26 26 27 27 27 28 29 31 32 33 35 36 37 38 40 41 41 43 43 44 44 45 45 45 46 46 47 47 47 47 46 46 45 44 44 44 43 41 40
23 24 25 27 27 26 25 26 25 25 26 27 27 26 26 28 29 30 32 34 34 35 36 37 39 40 40 41 42 42 42 43 46 46 46 46 46 46 46 45 46 46 46 45 45 45 44 43 42
22 23 24 27 27 26 26 25 24 25 26 27 28 27 27 27 29 31 32 33 34 35 36 37 37 38 38 39 41 41 41 41 42 44 46 47 47 46 46 45 46 46 46 46 46 46 45 44 43
21 22 23 26 27 27 27 25 24 25 27 27 27 28 28 28 29 31 32 32 34 36 36 37 38 38 38 38 40 40 41 41 41 43 43 45 46 46 45 46 45 45 45 45 46 45 45 45 44
21 21 22 24 26 27 27 25 24 25 26 27 27 28 29 30 31 31 31 32 33 35 36 37 37 37 37 38 38 40 41 41 42 42 42 42 44 46 45 46 46 45 44 44 45 45 44 45 45
21 21 22 23 25 27 27 25 24 24 26 27 28 28 28 30 31 32 32 31 32 34 36 36 37 36 37 37 37 38 40 41 41 41 43 42 42 43 44 44 44 45 44 44 45 44 44 44 45
22 22 22 23 24 26 26 25 24 25 25 26 27 27 28 29 30 31 31 31 32 33 34 35 35 35 36 36 36 37 38 39 39 39 41 40 40 41 43 45 44 44 45 44 44 43 44 44 43

GEFSSGP_500_meanwind_270.txt.gz
Wind_Speed
28 28 28 28 29 29 29 27 25 25 24 24 24 24 23 23 23 24 23 23 23 22 22 22 21 21 20 20 19 19 20 19 19 18 17 17 16 16 15 15 14 13 13 12 11 11 10 10 10
27 29 29 30 31 31 30 28 27 26 26 26 26 26 25 25 25 25 25 25 25 24 24 23 23 23 22 22 21 21 21 21 20 20 19 18 18 17 17 16 16 15 14 14 13 12 12 11 11
27 28 30 31 32 32 31 30 29 29 28 28 28 28 28 27 26 26 26 25 25 26 26 25 26 25 25 24 23 23 22 22 22 21 21 20 19 19 18 18 17 17 16 15 15 14 14 13 13
28 29 30 32 32 31 32 31 31 31 31 30 30 31 30 29 28 27 27 26 26 26 27 28 28 27 27 26 26 25 24 24 23 23 23 22 21 21 20 19 19 19 18 17 17 16 16 15 15
29 30 31 32 32 32 32 33 33 33 33 33 33 32 32 30 29 29 29 28 28 28 28 29 29 29 28 28 28 28 27 26 25 25 24 24 23 23 22 22 21 21 20 19 19 19 18 17 17
30 31 33 32 33 33 33 34 35 36 35 35 35 35 34 33 32 31 31 30 30 30 29 30 31 31 30 30 30 30 29 28 28 27 27 26 26 25 24 24 24 23 22 21 21 21 20 20 19
30 32 32 32 33 34 34 34 36 36 36 37 37 37 36 35 34 33 33 32 32 31 31 32 33 32 32 32 31 32 31 31 30 30 29 28 28 27 27 26 26 25 24 24 23 23 23 22 21
30 31 31 31 31 33 34 34 35 36 36 37 37 37 37 36 35 35 34 34 33 33 33 34 34 35 34 34 34 33 33 33 33 32 31 31 31 30 29 29 28 28 27 26 25 25 25 24 24
30 30 30 30 31 33 34 35 35 36 37 37 37 38 38 37 37 37 36 36 35 35 35 35 36 36 36 36 36 36 35 35 35 35 34 33 33 32 32 31 31 30 30 29 28 27 27 26 25
30 30 30 31 31 33 34 35 35 36 37 37 37 38 38 38 38 37 37 37 37 37 37 37 38 38 38 38 38 38 37 37 37 37 37 36 35 35 34 34 33 33 32 31 31 30 29 28 28
29 30 31 32 33 33 35 36 36 36 37 38 38 38 38 38 38 38 38 38 38 38 38 39 40 40 40 40 39 39 39 39 39 39 39 39 38 37 36 36 35 35 34 34 33 32 31 31 30
30 30 31 32 33 34 35 37 37 38 37 38 39 39 39 39 39 38 38 38 39 39 39 40 41 42 42 41 41 41 41 41 41 41 41 41 40 39 39 37 37 37 37 36 36 35 34 33 32
29 30 31 32 33 35 36 37 38 38 38 38 38 39 39 39 39 38 38 38 38 38 39 40 41 42 43 43 42 43 42 42 42 42 42 43 43 41 41 39 39 38 39 38 37 37 36 36 35
29 30 31 32 33 34 36 36 37 37 38 37 38 38 39 40 40 39 39 38 37 38 38 40 40 41 42 43 43 44 43 43 44 44 44 44 44 43 42 41 41 40 40 40 40 39 38 37 36
29 30 31 32 33 34 35 35 34 35 37 37 38 38 39 40 40 40 39 38 38 38 39 39 41 41 41 43 44 44 44 44 44 45 45 45 46 45 43 42 42 42 42 42 41 41 40 40 38
29 30 31 31 32 32 34 33 31 33 36 37 37 37 38 39 40 40 39 39 39 39 40 40 41 41 41 43 44 44 45 44 44 45 46 46 46 45 44 44 43 44 43 43 43 43 41 41 40
28 29 30 30 32 32 32 31 30 32 34 35 35 35 36 37 38 38 39 39 39 40 40 41 41 41 43 44 43 43 44 44 44 45 46 46 47 47 46 44 44 44 44 43 43 43 42 41 40
28 28 29 29 31 31 31 30 30 31 32 33 34 34 34 35 35 36 38 39 39 40 40 41 42 43 44 44 43 44 44 44 45 45 46 47 48 48 47 46 45 44 43 43 43 44 44 43 41
27 27 27 28 30 31 30 29 28 29 30 31 32 32 31 32 32 33 34 36 38 39 40 42 42 42 42 44 44 44 44 44 45 46 48 47 47 48 47 47 46 45 44 43 43 44 43 44 43
27 27 27 27 28 29 28 28 27 28 28 29 30 31 31 32 31 33 33 35 37 38 39 41 42 43 43 44 44 45 44 45 45 45 46 47 48 49 48 47 46 44 45 45 44 43 42 43 44
26 26 26 27 26 27 27 26 25 26 28 29 29 30 30 31 32 32 34 34 36 37 38 39 40 42 43 45 45 45 45 44 44 45 45 46 48 49 48 47 46 46 46 45 45 43 43 43 43
24 25 25 26 26 25 26 27 25 26 28 28 27 27 28 30 32 33 34 35 36 38 39 40 40 40 42 45 45 44 45 45 43 44 46 46 47 48 47 47 47 46 45 45 45 45 44 43 43
23 25 25 26 26 26 26 27 26 27 28 28 28 27 27 28 30 32 34 35 36 38 38 40 40 39 41 42 43 45 45 46 44 44 46 45 46 46 46 47 47 47 46 46 47 46 46 43 43
23 25 26 26 26 26 25 27 26 26 27 28 28 26 27 28 28 30 34 35 35 36 38 38 39 39 41 41 42 44 45 45 45 44 45 45 46 46 47 47 47 47 47 47 48 48 47 45 45
23 23 24 25 25 25 24 26 26 25 26 27 26 27 27 27 28 30 33 35 35 36 37 39 39 39 40 41 40 41 43 44 45 45 45 44 45 45 45 47 47 46 45 45 46 47 48 47 46
21 21 22 23 24 24 23 24 24 25 26 25 25 27 28 28 29 30 32 33 34 35 37 38 40 39 40 39 40 39 41 42 43 44 44 44 44 44 43 44 45 45 44 44 45 46 47 47 46
21 20 21 23 23 23 23 22 22 22 23 24 25 27 28 29 31 31 31 32 34 35 36 37 39 39 39 39 39 38 39 40 42 43 44 44 44 44 43 43 45 45 44 44 44 45 46 47 46
21 21 21 22 23 24 23 22 21 21 21 21 23 24 26 28 30 31 31 30 32 34 35 37 38 39 40 40 39 38 37 39 39 40 40 40 42 42 43 44 44 45 45 44 43 44 45 47 46
21 21 21 22 23 24 24 22 22 21 22 22 22 23 25 26 27 28 29 31 31 33 34 36 38 38 39 39 39 39 37 37 37 37 37 38 39 42 43 43 44 45 46 45 44 44 44 46 47
22 21 21 22 23 23 24 23 21 21 22 23 23 23 24 24 24 25 26 28 29 31 33 36 38 39 39 38 38 39 38 38 36 36 36 37 38 38 38 40 41 42 44 45 44 45 45 45 45